DW1157 Weather Reports


Display with metric or nautical units.
time (UTC)temp
F
wind
direction
speed
MPH
gust
MPH
rain 1hr
in
rain 24hr
in
rain mn
in
humidity
%
barometer
mb
20260507224424 78 42 2.0 0.0 0.00 0.00 0.00 81 1005.5
20260507224326 79 35 2.0 0.0 0.00 0.00 0.00 81 1005.6
20260507224248 79 39 2.0 0.0 0.00 0.00 0.00 81 1005.6
20260507224121 79 148 3.0 0.0 0.00 0.00 0.00 82 1005.6
20260507224031 79 351 3.0 0.0 0.00 0.00 0.00 82 1005.6
20260507223952 79 58 3.0 0.0 0.00 0.00 0.00 81 1005.6
20260507223830 79 38 4.0 0.0 0.00 0.00 0.00 81 1005.6
20260507223729 78 83 4.0 0.0 0.00 0.00 0.00 82 1005.6
20260507223622 78 57 5.0 0.0 0.00 0.00 0.00 82 1005.5
20260507223523 78 71 5.0 0.0 0.00 0.00 0.00 82 1005.5
20260507223435 78 22 5.0 0.0 0.00 0.00 0.00 81 1005.5
20260507223336 78 60 5.0 0.0 0.00 0.00 0.00 82 1005.5
20260507223232 78 34 5.0 0.0 0.00 0.00 0.00 82 1005.5
20260507223132 78 57 6.0 0.0 0.00 0.00 0.00 82 1005.4
20260507223026 78 32 6.0 0.0 0.00 0.00 0.00 81 1005.4
20260507222918 78 53 6.0 0.0 0.00 0.00 0.00 81 1005.4
20260507222845 78 55 6.0 0.0 0.00 0.00 0.00 81 1005.4
20260507222719 78 21 6.0 0.0 0.00 0.00 0.00 81 1005.4
20260507222623 78 29 6.0 0.0 0.00 0.00 0.00 81 1005.4
20260507222535 78 13 6.0 0.0 0.00 0.00 0.00 81 1005.4
20260507222436 78 62 6.0 0.0 0.00 0.00 0.00 81 1005.4
20260507222328 79 40 6.0 0.0 0.00 0.00 0.00 81 1005.4
20260507222225 79 34 6.0 0.0 0.00 0.00 0.00 81 1005.4
20260507222125 79 61 6.0 0.0 0.00 0.00 0.00 81 1005.4
20260507222048 79 53 6.0 0.0 0.00 0.00 0.00 80 1005.4
20260507221941 79 66 5.0 0.0 0.00 0.00 0.00 81 1005.4
20260507221832 79 68 5.0 0.0 0.00 0.00 0.00 80 1005.4
20260507221741 79 21 5.0 0.0 0.00 0.00 0.00 81 1005.4
20260507221631 79 82 5.0 0.0 0.00 0.00 0.00 80 1005.2
20260507221600 79 42 5.0 0.0 0.00 0.00 0.00 80 1005.2
20260507221436 79 24 5.0 0.0 0.00 0.00 0.00 80 1005.2
20260507221328 79 35 4.0 0.0 0.00 0.00 0.00 81 1005.2
20260507221228 79 28 4.0 0.0 0.00 0.00 0.00 80 1005.2
20260507221124 79 49 4.0 0.0 0.00 0.00 0.00 81 1005.2
20260507221046 79 53 4.0 0.0 0.00 0.00 0.00 81 1005.2
20260507220921 79 36 5.0 0.0 0.00 0.00 0.00 80 1005.2
20260507220839 79 298 5.0 0.0 0.00 0.00 0.00 80 1005.2
20260507220740 79 31 5.0 0.0 0.00 0.00 0.00 80 1005.2
20260507220632 79 78 5.0 0.0 0.00 0.00 0.00 80 1005.2
20260507220556 79 74 5.0 0.0 0.00 0.00 0.00 80 1005.2
20260507220427 79 63 5.0 0.0 0.00 0.00 0.00 80 1005.2
20260507220322 79 71 6.0 0.0 0.00 0.00 0.00 80 1005.2
20260507220223 79 26 6.0 0.0 0.00 0.00 0.00 80 1005.2
20260507220121 79 36 6.0 0.0 0.00 0.00 0.00 81 1005.1
20260507220040 79 36 6.0 0.0 0.00 0.00 0.00 80 1005.1
20260507215955 79 32 6.0 0.0 0.00 0.00 0.00 80 1005.1
20260507215856 79 41 5.0 0.0 0.00 0.00 0.00 80 1005.1
20260507215728 79 26 5.0 0.0 0.00 0.00 0.00 80 1005.1
20260507215629 79 81 5.0 0.0 0.00 0.00 0.00 80 1005.1
20260507215520 79 47 5.0 0.0 0.00 0.00 0.00 80 1005.1
20260507215442 80 54 5.0 0.0 0.00 0.00 0.00 80 1005.1
20260507215353 80 27 5.0 0.0 0.00 0.00 0.00 80 1005.1
20260507215239 80 41 5.0 0.0 0.00 0.00 0.00 80 1005.1
20260507215133 80 336 5.0 0.0 0.00 0.00 0.00 79 1005.1
20260507215027 80 20 5.0 0.0 0.00 0.00 0.00 79 1005.1
20260507214930 80 63 6.0 0.0 0.00 0.00 0.00 79 1005.1
20260507214842 80 45 6.0 0.0 0.00 0.00 0.00 79 1005.1
20260507214723 80 41 6.0 0.0 0.00 0.00 0.00 79 1005.1
20260507214617 80 73 6.0 0.0 0.00 0.00 0.00 79 1005.3
20260507214520 80 17 6.0 0.0 0.00 0.00 0.00 80 1005.3
20260507214445 80 82 6.0 0.0 0.00 0.00 0.00 80 1005.3
20260507214406 80 61 6.0 0.0 0.00 0.00 0.00 80 1005.3
20260507214236 80 27 6.0 0.0 0.00 0.00 0.00 80 1005.3
20260507214131 80 69 6.0 0.0 0.00 0.00 0.00 80 1005.3
20260507214031 80 82 6.0 0.0 0.00 0.00 0.00 80 1005.3
20260507213942 80 28 5.0 0.0 0.00 0.00 0.00 79 1005.3
20260507213847 80 38 5.0 0.0 0.00 0.00 0.00 79 1005.3
20260507213804 80 27 5.0 0.0 0.00 0.00 0.00 80 1005.3
20260507213125 80 42 4.0 0.0 0.00 0.00 0.00 79 1005.5
20260507213047 80 15 4.0 0.0 0.00 0.00 0.00 79 1005.5
20260507212919 80 28 4.0 0.0 0.00 0.00 0.00 79 1005.5
20260507212831 80 24 4.0 0.0 0.00 0.00 0.00 79 1005.5
20260507212739 80 11 4.0 0.0 0.00 0.00 0.00 79 1005.5
20260507212632 80 60 5.0 0.0 0.00 0.00 0.00 80 1005.5
20260507212554 80 123 5.0 0.0 0.00 0.00 0.00 79 1005.5
20260507212428 80 54 4.0 0.0 0.00 0.00 0.00 78 1005.5
20260507212323 80 34 4.0 0.0 0.00 0.00 0.00 79 1005.5
20260507212243 80 75 3.0 0.0 0.00 0.00 0.00 79 1005.5
20260507212145 80 42 3.0 0.0 0.00 0.00 0.00 79 1005.5
20260507212020 80 57 3.0 0.0 0.00 0.00 0.00 79 1005.5
20260507211930 80 106 3.0 0.0 0.00 0.00 0.00 78 1005.5
20260507211836 81 36 3.0 0.0 0.00 0.00 0.00 78 1005.5
20260507211724 81 15 4.0 0.0 0.00 0.00 0.00 78 1005.5
20260507211632 81 342 3.0 0.0 0.00 0.00 0.00 78 1005.3
20260507211522 81 42 3.0 0.0 0.00 0.00 0.00 79 1005.3
20260507211429 81 341 3.0 0.0 0.00 0.00 0.00 79 1005.3
20260507211319 81 20 4.0 0.0 0.00 0.00 0.00 79 1005.3
20260507211246 81 63 4.0 0.0 0.00 0.00 0.00 79 1005.3
20260507211122 81 76 5.0 0.0 0.00 0.00 0.00 79 1005.3
20260507211031 81 39 5.0 0.0 0.00 0.00 0.00 79 1005.3
20260507210942 81 40 5.0 0.0 0.00 0.00 0.00 79 1005.3
20260507210834 81 40 5.0 0.0 0.00 0.00 0.00 78 1005.3
20260507210728 81 30 5.0 0.0 0.00 0.00 0.00 79 1005.3
20260507210630 81 94 5.0 0.0 0.00 0.00 0.00 79 1005.3
20260507210543 81 62 5.0 0.0 0.00 0.00 0.00 79 1005.3
20260507210443 81 39 4.0 0.0 0.00 0.00 0.00 78 1005.3
20260507210343 81 341 4.0 0.0 0.00 0.00 0.00 78 1005.3
20260507210239 81 351 4.0 0.0 0.00 0.00 0.00 78 1005.3
20260507210138 81 80 4.0 0.0 0.00 0.00 0.00 79 1005.3
20260507210055 81 29 4.0 0.0 0.00 0.00 0.00 79 1005.5
20260507205934 81 26 4.0 0.0 0.00 0.00 0.00 78 1005.5
20260507205830 81 71 3.0 0.0 0.00 0.00 0.00 79 1005.5
20260507205751 81 30 3.0 0.0 0.00 0.00 0.00 78 1005.5
20260507205648 81 41 3.0 0.0 0.00 0.00 0.00 78 1005.5
20260507205528 81 38 4.0 0.0 0.00 0.00 0.00 78 1005.5
20260507205423 81 107 5.0 0.0 0.00 0.00 0.00 78 1005.5
20260507205318 81 28 5.0 0.0 0.00 0.00 0.00 78 1005.5
20260507205247 81 59 5.0 0.0 0.00 0.00 0.00 78 1005.5
20260507205208 81 57 5.0 0.0 0.00 0.00 0.00 78 1005.5
20260507205018 81 34 5.0 0.0 0.00 0.00 0.00 78 1005.5
20260507204944 81 342 5.0 0.0 0.00 0.00 0.00 79 1005.5
20260507204858 81 28 5.0 0.0 0.00 0.00 0.00 78 1005.5
20260507204736 81 59 5.0 0.0 0.00 0.00 0.00 79 1005.5
20260507204628 81 38 5.0 0.0 0.00 0.00 0.00 79 1005.6
20260507204521 81 38 5.0 0.0 0.00 0.00 0.00 79 1005.6
20260507204447 81 75 5.0 0.0 0.00 0.00 0.00 79 1005.6
20260507204411 81 32 5.0 0.0 0.00 0.00 0.00 79 1005.6
20260507204300 81 41 5.0 0.0 0.00 0.00 0.00 79 1005.6
20260507204139 81 25 5.0 0.0 0.00 0.00 0.00 79 1005.6
20260507204031 81 11 5.0 0.0 0.00 0.00 0.00 79 1005.6
20260507203936 80 49 5.0 0.0 0.00 0.00 0.00 79 1005.6
20260507203828 80 38 4.0 0.0 0.00 0.00 0.00 79 1005.6
20260507203723 80 11 4.0 0.0 0.00 0.00 0.00 79 1005.6
20260507203629 80 20 4.0 0.0 0.00 0.00 0.00 79 1005.6
20260507203525 80 39 4.0 0.0 0.00 0.00 0.00 79 1005.6
20260507203447 80 117 4.0 0.0 0.00 0.00 0.00 79 1005.6
20260507203339 80 35 4.0 0.0 0.00 0.00 0.00 80 1005.6
20260507203242 80 51 4.0 0.0 0.00 0.00 0.00 79 1005.6
20260507203142 80 64 5.0 0.0 0.00 0.00 0.00 79 1005.6
20260507203101 80 74 5.0 0.0 0.00 0.00 0.00 79 1006.0
20260507202934 80 46 5.0 0.0 0.00 0.00 0.00 80 1006.0
20260507202830 80 13 6.0 0.0 0.00 0.00 0.00 80 1006.0
20260507202734 80 38 6.0 0.0 0.00 0.00 0.00 80 1006.0
20260507202646 80 57 6.0 0.0 0.00 0.00 0.00 80 1006.0
20260507202524 80 40 6.0 0.0 0.00 0.00 0.00 80 1006.0
20260507202440 80 51 6.0 0.0 0.00 0.00 0.00 79 1006.0
20260507202341 80 5 6.0 0.0 0.00 0.00 0.00 79 1006.0
20260507202252 80 346 5.0 0.0 0.00 0.00 0.00 80 1006.0
20260507202151 80 38 4.0 0.0 0.00 0.00 0.00 79 1006.0
20260507202028 80 65 4.0 0.0 0.00 0.00 0.00 80 1006.0
20260507201933 80 23 4.0 0.0 0.00 0.00 0.00 80 1006.0
20260507201828 80 160 4.0 0.0 0.00 0.00 0.00 80 1006.0
20260507201722 80 15 4.0 0.0 0.00 0.00 0.00 80 1006.0
20260507201624 80 42 4.0 0.0 0.00 0.00 0.00 80 1006.2
20260507201546 80 13 4.0 0.0 0.00 0.00 0.00 80 1006.2
20260507201439 80 74 4.0 0.0 0.00 0.00 0.00 80 1006.2
20260507201332 80 60 4.0 0.0 0.00 0.00 0.00 80 1006.2
20260507201241 80 15 4.0 0.0 0.00 0.00 0.00 80 1006.2
20260507201136 80 53 4.0 0.0 0.00 0.00 0.00 80 1006.2
20260507201056 80 69 4.0 0.0 0.00 0.00 0.00 81 1006.2
20260507200927 79 40 5.0 0.0 0.00 0.00 0.00 81 1006.2
20260507200849 79 26 5.0 0.0 0.00 0.00 0.00 81 1006.2
20260507200740 79 26 5.0 0.0 0.00 0.00 0.00 81 1006.2
20260507200641 79 93 5.0 0.0 0.00 0.00 0.00 81 1006.2
20260507200517 79 44 5.0 0.0 0.00 0.00 0.00 81 1006.2
20260507200432 79 51 5.0 0.0 0.00 0.00 0.00 81 1006.2
20260507200335 79 131 5.0 0.0 0.00 0.00 0.00 81 1006.2
20260507200229 79 34 5.0 0.0 0.00 0.00 0.00 81 1006.2
20260507200124 79 51 6.0 0.0 0.00 0.00 0.00 81 1006.6
20260507200024 79 70 6.0 0.0 0.00 0.00 0.00 81 1006.6
20260507195936 79 57 6.0 0.0 0.00 0.00 0.00 82 1006.6
20260507195838 79 35 6.0 0.0 0.00 0.00 0.00 81 1006.6
20260507195734 79 51 6.0 0.0 0.00 0.00 0.00 81 1006.6
20260507195629 79 62 6.0 0.0 0.00 0.00 0.00 81 1006.6
20260507195530 79 343 6.0 0.0 0.00 0.00 0.00 81 1006.6
20260507195423 79 63 6.0 0.0 0.00 0.00 0.00 82 1006.6
20260507195322 79 42 7.0 0.0 0.00 0.00 0.00 82 1006.6
20260507195240 79 28 7.0 0.0 0.00 0.00 0.00 82 1006.6
20260507195142 79 47 6.0 0.0 0.00 0.00 0.00 82 1006.6
20260507195055 79 54 6.0 0.0 0.00 0.00 0.00 81 1006.6
20260507194938 79 40 6.0 0.0 0.00 0.00 0.00 81 1006.6
20260507194851 79 34 6.0 0.0 0.00 0.00 0.00 82 1006.6
20260507194728 79 30 6.0 0.0 0.00 0.00 0.00 81 1006.6
20260507194620 79 58 6.0 0.0 0.00 0.00 0.00 82 1006.6
20260507194542 79 35 6.0 0.0 0.00 0.00 0.00 81 1006.6
20260507194449 79 55 6.0 0.0 0.00 0.00 0.00 81 1006.6
20260507194340 79 49 6.0 0.0 0.00 0.00 0.00 81 1006.6
20260507194241 79 46 6.0 0.0 0.00 0.00 0.00 81 1006.6
20260507194131 79 54 6.0 0.0 0.00 0.00 0.00 81 1006.6
20260507194037 79 46 6.0 0.0 0.00 0.00 0.00 81 1006.6
20260507193929 79 48 6.0 0.0 0.00 0.00 0.00 81 1006.6
20260507193827 79 28 5.0 0.0 0.00 0.00 0.00 81 1006.6
20260507193748 79 26 5.0 0.0 0.00 0.00 0.00 81 1006.6
20260507193622 79 60 5.0 0.0 0.00 0.00 0.00 80 1006.6
20260507193523 80 50 5.0 0.0 0.00 0.00 0.00 80 1006.6
20260507193434 80 19 5.0 0.0 0.00 0.00 0.00 80 1006.6
20260507193343 80 71 5.0 0.0 0.00 0.00 0.00 81 1006.6
20260507193219 80 49 5.0 0.0 0.00 0.00 0.00 81 1006.6
20260507193130 80 101 6.0 0.0 0.00 0.00 0.00 81 1006.9
20260507193052 79 36 6.0 0.0 0.00 0.00 0.00 82 1006.9
20260507192953 79 19 6.0 0.0 0.00 0.00 0.00 82 1006.9
20260507192825 79 105 6.0 0.0 0.00 0.00 0.00 82 1006.9
20260507192746 79 28 6.0 0.0 0.00 0.00 0.00 81 1006.9
20260507192619 79 90 6.0 0.0 0.00 0.00 0.00 82 1006.9
20260507192535 79 30 6.0 0.0 0.00 0.00 0.00 81 1006.9
20260507192435 79 18 6.0 0.0 0.00 0.00 0.00 81 1006.9
20260507192331 79 15 6.0 0.0 0.00 0.00 0.00 81 1006.9
20260507192225 79 20 6.0 0.0 0.00 0.00 0.00 81 1006.9
20260507192129 79 32 6.0 0.0 0.00 0.00 0.00 81 1006.9
20260507192025 79 22 6.0 0.0 0.00 0.00 0.00 81 1006.9
20260507191946 79 74 6.0 0.0 0.00 0.00 0.00 82 1006.9
20260507191824 79 28 6.0 0.0 0.00 0.00 0.00 81 1006.9
20260507191721 79 78 5.0 0.0 0.00 0.00 0.00 81 1006.9
20260507191623 79 78 6.0 0.0 0.00 0.00 0.00 81 1007.0
20260507191524 79 65 6.0 0.0 0.00 0.00 0.00 81 1007.0
20260507191440 79 72 6.0 0.0 0.00 0.00 0.00 81 1007.0
20260507191341 79 32 5.0 0.0 0.00 0.00 0.00 81 1007.0
20260507191233 79 76 5.0 0.0 0.00 0.00 0.00 80 1007.0
20260507191138 79 46 5.0 0.0 0.00 0.00 0.00 80 1007.1
20260507191030 80 83 4.0 0.0 0.00 0.00 0.00 81 1007.1
20260507190923 80 44 4.0 0.0 0.00 0.00 0.00 80 1007.1
20260507190843 80 53 4.0 0.0 0.00 0.00 0.00 81 1007.1
20260507190746 80 71 4.0 0.0 0.00 0.00 0.00 80 1007.1
20260507190622 80 44 3.0 0.0 0.00 0.00 0.00 80 1007.1
20260507190537 80 42 3.0 0.0 0.00 0.00 0.00 80 1007.1
20260507190415 80 76 3.0 0.0 0.00 0.00 0.00 81 1007.1
20260507190326 80 43 2.0 0.0 0.00 0.00 0.00 80 1007.1
20260507190237 80 41 2.0 0.0 0.00 0.00 0.00 80 1007.1
20260507190138 80 40 2.0 0.0 0.00 0.00 0.00 80 1007.1
20260507190031 80 21 2.0 0.0 0.00 0.00 0.00 80 1007.2
20260507185923 80 155 2.0 0.0 0.00 0.00 0.00 80 1007.2
20260507185824 80 26 1.0 0.0 0.00 0.00 0.00 80 1007.2
20260507185745 80 42 1.0 0.0 0.00 0.00 0.00 81 1007.2
20260507185618 80 44 1.0 0.0 0.00 0.00 0.00 81 1007.2
20260507185537 80 140 1.0 0.0 0.00 0.00 0.00 81 1007.2
20260507185439 80 111 1.0 0.0 0.00 0.00 0.00 81 1007.2
20260507185349 80 40 1.0 0.0 0.00 0.00 0.00 80 1007.2
20260507185230 80 27 2.0 0.0 0.00 0.00 0.00 81 1007.2
20260507185124 80 26 1.0 0.0 0.00 0.00 0.00 81 1007.2
20260507185049 80 93 1.0 0.0 0.00 0.00 0.00 81 1007.2
20260507184949 80 175 1.0 0.0 0.00 0.00 0.00 81 1007.2
20260507184821 80 106 1.0 0.0 0.00 0.00 0.00 81 1007.2
20260507184732 80 76 1.0 0.0 0.00 0.00 0.00 82 1007.2
20260507184638 79 136 1.0 0.0 0.00 0.00 0.00 82 1007.2
20260507184532 79 73 2.0 0.0 0.00 0.00 0.00 82 1007.3
20260507184432 79 46 2.0 0.0 0.00 0.00 0.00 83 1007.3
20260507184327 79 38 2.0 0.0 0.00 0.00 0.00 83 1007.3
20260507184249 79 327 2.0 0.0 0.00 0.00 0.00 82 1007.3
20260507184151 79 117 2.0 0.0 0.00 0.00 0.00 82 1007.3
20260507184042 79 28 3.0 0.0 0.00 0.00 0.00 82 1007.3
20260507183933 79 19 3.0 0.0 0.00 0.00 0.00 82 1007.3
20260507183838 79 148 3.0 0.0 0.00 0.00 0.00 82 1007.3
20260507183731 79 36 3.0 0.0 0.00 0.00 0.00 81 1007.3
20260507183638 79 46 3.0 0.0 0.00 0.00 0.00 82 1007.3
20260507183530 79 37 2.0 0.0 0.00 0.00 0.00 81 1007.3
20260507183452 79 65 2.0 0.0 0.00 0.00 0.00 82 1007.3
20260507183343 79 15 2.0 0.0 0.00 0.00 0.00 82 1007.3
20260507183223 79 38 2.0 0.0 0.00 0.00 0.00 82 1007.3
20260507183136 79 40 2.0 0.0 0.00 0.00 0.00 81 1007.3
20260507183041 79 30 2.0 0.0 0.00 0.00 0.00 81 1007.6
20260507182951 79 25 1.0 0.0 0.00 0.00 0.00 81 1007.6
20260507182835 79 355 2.0 0.0 0.00 0.00 0.00 83 1007.6
20260507182747 79 34 3.0 0.0 0.00 0.00 0.00 82 1007.6
20260507182650 79 26 3.0 0.0 0.00 0.00 0.00 82 1007.6
20260507182611 79 53 3.0 0.0 0.00 0.00 0.00 82 1007.6
20260507182441 79 80 4.0 0.0 0.00 0.00 0.00 82 1007.6
20260507182343 79 268 4.0 0.0 0.00 0.00 0.00 83 1007.6
20260507182234 78 30 4.0 0.0 0.00 0.00 0.00 83 1007.6
20260507182159 78 39 5.0 0.0 0.00 0.00 0.00 83 1007.6
20260507182033 78 326 5.0 0.0 0.00 0.00 0.00 83 1007.6
20260507181934 78 58 5.0 0.0 0.00 0.00 0.00 83 1007.6
20260507181828 78 47 5.0 0.0 0.00 0.00 0.00 83 1007.6
20260507181728 78 19 5.0 0.0 0.00 0.00 0.00 83 1007.6
20260507181622 78 57 5.0 0.0 0.00 0.00 0.00 83 1007.7
20260507181544 78 22 5.0 0.0 0.00 0.00 0.00 83 1007.7
20260507181436 78 34 5.0 0.0 0.00 0.00 0.00 84 1007.7
20260507181331 77 37 5.0 0.0 0.00 0.00 0.00 84 1007.7
20260507181255 77 40 5.0 0.0 0.00 0.00 0.00 83 1007.7
20260507181125 77 32 5.0 0.0 0.00 0.00 0.00 83 1007.7
20260507181024 77 31 5.0 0.0 0.00 0.00 0.00 84 1007.7
20260507180940 77 37 5.0 0.0 0.00 0.00 0.00 84 1007.7
20260507180841 77 40 5.0 0.0 0.00 0.00 0.00 84 1007.7
20260507180731 77 20 5.0 0.0 0.00 0.00 0.00 84 1007.7
20260507180632 77 39 5.0 0.0 0.00 0.00 0.00 85 1007.7
20260507180529 77 61 5.0 0.0 0.00 0.00 0.00 84 1007.7
20260507180421 77 40 4.0 0.0 0.00 0.00 0.00 85 1007.7
20260507180324 77 19 4.0 0.0 0.00 0.00 0.00 85 1007.7
20260507180236 76 41 4.0 0.0 0.00 0.00 0.00 85 1007.7
20260507180136 76 37 4.0 0.0 0.00 0.00 0.00 85 1007.7
20260507180028 76 17 4.0 0.0 0.00 0.00 0.00 85 1008.0
20260507175925 76 50 4.0 0.0 0.00 0.00 0.00 85 1008.0
20260507175825 76 30 3.0 0.0 0.00 0.00 0.00 85 1008.0
20260507175726 76 40 3.0 0.0 0.00 0.00 0.00 85 1008.0
20260507175626 76 32 2.0 0.0 0.00 0.00 0.00 85 1008.0
20260507175522 76 31 2.0 0.0 0.00 0.00 0.00 85 1008.0
20260507175442 76 42 2.0 0.0 0.00 0.00 0.00 85 1008.0
20260507175355 76 51 3.0 0.0 0.00 0.00 0.00 85 1008.0
20260507175238 76 42 3.0 0.0 0.00 0.00 0.00 85 1008.0
20260507175152 76 32 3.0 0.0 0.00 0.00 0.00 85 1008.0
20260507175039 76 55 3.0 0.0 0.00 0.00 0.00 85 1008.0
20260507174935 76 51 3.0 0.0 0.00 0.00 0.00 86 1008.0
20260507174856 76 63 3.0 0.0 0.00 0.00 0.00 86 1008.0
20260507174726 76 53 4.0 0.0 0.00 0.00 0.00 86 1008.0
20260507174630 76 34 4.0 0.0 0.00 0.00 0.00 85 1008.2
20260507174526 76 63 5.0 0.0 0.00 0.00 0.00 85 1008.2
20260507174447 76 340 5.0 0.0 0.00 0.00 0.00 85 1008.2
20260507174358 76 76 5.0 0.0 0.00 0.00 0.00 85 1008.2
20260507174238 76 55 5.0 0.0 0.00 0.00 0.00 86 1008.2
20260507174137 76 43 5.0 0.0 0.00 0.00 0.00 86 1008.2
20260507174038 76 57 5.0 0.0 0.00 0.00 0.00 86 1008.2
20260507173932 76 38 6.0 0.0 0.00 0.00 0.00 86 1008.2
20260507173824 76 38 6.0 0.0 0.00 0.00 0.00 85 1008.2
20260507173749 76 34 6.0 0.0 0.00 0.00 0.00 85 1008.2
20260507173709 76 70 6.0 0.0 0.00 0.00 0.00 85 1008.2
20260507173521 76 34 6.0 0.0 0.00 0.00 0.00 85 1008.2
20260507173431 76 13 6.0 0.0 0.00 0.00 0.00 85 1008.2
20260507173336 76 351 6.0 0.0 0.00 0.00 0.00 85 1008.2
20260507173227 76 52 6.0 0.0 0.00 0.00 0.00 85 1008.2
20260507173129 76 29 5.0 0.0 0.00 0.00 0.00 84 1008.1
20260507173045 76 19 5.0 0.0 0.00 0.00 0.00 84 1008.1
20260507173006 76 36 4.0 0.0 0.00 0.00 0.00 85 1008.1
20260507172904 76 72 4.0 0.0 0.00 0.00 0.00 85 1008.1
20260507172718 76 54 3.0 0.0 0.00 0.00 0.00 85 1008.1
20260507172637 76 24 3.0 0.0 0.00 0.00 0.00 85 1008.1
20260507172559 76 30 3.0 0.0 0.00 0.00 0.00 84 1008.1
20260507172443 76 51 3.0 0.0 0.00 0.00 0.00 84 1008.1
20260507172318 76 37 3.0 0.0 0.00 0.00 0.00 84 1008.1
20260507172234 77 80 3.0 0.0 0.00 0.00 0.00 84 1008.1
20260507172136 77 38 3.0 0.0 0.00 0.00 0.00 84 1008.1
20260507172032 77 24 4.0 0.0 0.00 0.00 0.00 84 1008.1
20260507171928 77 35 5.0 0.0 0.00 0.00 0.00 84 1008.1
20260507171829 77 61 5.0 0.0 0.00 0.00 0.00 84 1008.1
20260507171731 77 182 5.0 0.0 0.00 0.00 0.00 84 1008.1
20260507171652 77 39 5.0 0.0 0.00 0.00 0.00 85 1008.2
20260507171556 77 58 5.0 0.0 0.00 0.00 0.00 85 1008.2
20260507171432 77 39 5.0 0.0 0.00 0.00 0.00 85 1008.2
20260507171359 77 73 5.0 0.0 0.00 0.00 0.00 85 1008.2
20260507171233 77 48 5.0 0.0 0.00 0.00 0.00 85 1008.2
20260507171125 76 29 5.0 0.0 0.00 0.00 0.00 85 1008.2
20260507171047 76 59 5.0 0.0 0.00 0.00 0.00 85 1008.2
20260507170923 77 98 5.0 0.0 0.00 0.00 0.00 85 1008.2
20260507170823 77 80 5.0 0.0 0.00 0.00 0.00 85 1008.2
20260507170735 77 65 5.0 0.0 0.00 0.00 0.00 85 1008.2
20260507170638 77 40 5.0 0.0 0.00 0.00 0.00 84 1008.2
20260507170537 77 92 5.0 0.0 0.00 0.00 0.00 84 1008.2
20260507170502 77 78 5.0 0.0 0.00 0.00 0.00 84 1008.2
20260507170336 77 30 4.0 0.0 0.00 0.00 0.00 84 1008.2
20260507170302 77 38 4.0 0.0 0.00 0.00 0.00 84 1008.2
20260507170116 77 26 4.0 0.0 0.00 0.00 0.00 84 1008.2
20260507170030 77 117 4.0 0.0 0.00 0.00 0.00 84 1008.2
20260507165930 77 57 4.0 0.0 0.00 0.00 0.00 84 1008.2
20260507165824 77 80 4.0 0.0 0.00 0.00 0.00 84 1008.2
20260507165744 77 91 4.0 0.0 0.00 0.00 0.00 84 1008.2
20260507165643 77 40 4.0 0.0 0.00 0.00 0.00 84 1008.2
20260507165536 77 38 4.0 0.0 0.00 0.00 0.00 85 1008.2
20260507165428 77 56 5.0 0.0 0.00 0.00 0.00 85 1008.2
20260507165327 76 92 5.0 0.0 0.00 0.00 0.00 85 1008.1
20260507165222 76 21 5.0 0.0 0.00 0.00 0.00 85 1008.1
20260507165128 76 84 5.0 0.0 0.00 0.00 0.00 85 1008.1
20260507165045 76 76 5.0 0.0 0.00 0.00 0.00 84 1008.1
20260507164928 76 63 5.0 0.0 0.00 0.00 0.00 84 1008.1
20260507164830 76 63 5.0 0.0 0.00 0.00 0.00 84 1008.1
20260507164727 76 63 5.0 0.0 0.00 0.00 0.00 84 1008.1
20260507164635 76 63 5.0 0.0 0.00 0.00 0.00 84 1008.1
20260507164531 76 23 5.0 0.0 0.00 0.00 0.00 84 1008.1
20260507164422 76 42 5.0 0.0 0.00 0.00 0.00 84 1008.1
20260507164324 76 68 5.0 0.0 0.00 0.00 0.00 85 1008.1
20260507164235 76 41 5.0 0.0 0.00 0.00 0.00 85 1008.1
20260507164139 76 24 5.0 0.0 0.00 0.00 0.00 85 1008.1
20260507164032 76 101 5.0 0.0 0.00 0.00 0.00 85 1008.1
20260507163923 76 22 5.0 0.0 0.00 0.00 0.00 85 1008.1
20260507163835 76 22 5.0 0.0 0.00 0.00 0.00 85 1008.1
20260507163725 76 67 4.0 0.0 0.00 0.00 0.00 85 1008.1
20260507163628 76 38 4.0 0.0 0.00 0.00 0.00 85 1008.1
20260507163521 76 41 4.0 0.0 0.00 0.00 0.00 85 1008.1
20260507163442 76 28 4.0 0.0 0.00 0.00 0.00 85 1008.1
20260507163334 76 348 4.0 0.0 0.00 0.00 0.00 86 1008.1
20260507163226 76 27 3.0 0.0 0.00 0.00 0.00 86 1008.1
20260507163135 76 20 3.0 0.0 0.00 0.00 0.00 85 1008.1
20260507163029 76 80 3.0 0.0 0.00 0.00 0.00 86 1008.1
20260507162923 76 30 2.0 0.0 0.00 0.00 0.00 85 1008.1
20260507162822 76 63 2.0 0.0 0.00 0.00 0.00 86 1008.1
20260507162743 76 63 2.0 0.0 0.00 0.00 0.00 86 1008.1
20260507162639 75 41 2.0 0.0 0.00 0.00 0.00 86 1008.1
20260507162543 75 88 2.0 0.0 0.00 0.00 0.00 86 1008.1
20260507162421 75 25 1.0 0.0 0.00 0.00 0.00 86 1008.1
20260507162334 75 39 1.0 0.0 0.00 0.00 0.00 86 1008.1
20260507162236 75 30 1.0 0.0 0.00 0.00 0.00 86 1008.1
20260507162152 75 34 2.0 0.0 0.00 0.00 0.00 86 1008.1
20260507162035 75 34 2.0 0.0 0.00 0.00 0.00 86 1008.1
20260507161928 75 82 2.0 0.0 0.00 0.00 0.00 86 1008.1
20260507161830 75 57 2.0 0.0 0.00 0.00 0.00 86 1008.1
20260507161727 75 45 2.0 0.0 0.00 0.00 0.00 86 1008.1
20260507161622 75 37 3.0 0.0 0.00 0.00 0.00 86 1008.1
20260507161522 75 20 3.0 0.0 0.00 0.00 0.00 86 1008.1
20260507161444 75 33 3.0 0.0 0.00 0.00 0.00 86 1008.1
20260507161335 75 56 3.0 0.0 0.00 0.00 0.00 86 1008.1
20260507161255 75 16 3.0 0.0 0.00 0.00 0.00 86 1008.1
20260507161129 75 61 3.0 0.0 0.00 0.00 0.00 86 1008.1
20260507161033 75 22 3.0 0.0 0.00 0.00 0.00 86 1008.1
20260507160926 75 65 3.0 0.0 0.00 0.00 0.00 87 1008.1
20260507160847 75 32 3.0 0.0 0.00 0.00 0.00 87 1008.1
20260507160723 75 35 3.0 0.0 0.00 0.00 0.00 86 1008.1
20260507160635 75 28 3.0 0.0 0.00 0.00 0.00 86 1008.1
20260507160536 75 43 3.0 0.0 0.00 0.00 0.00 86 1008.1
20260507160428 75 26 3.0 0.0 0.00 0.00 0.00 86 1008.1
20260507160351 75 47 3.0 0.0 0.00 0.00 0.00 86 1008.1
20260507160222 75 52 3.0 0.0 0.00 0.00 0.00 86 1008.1
20260507160147 75 25 3.0 0.0 0.00 0.00 0.00 87 1007.9
20260507160048 75 31 3.0 0.0 0.00 0.00 0.00 87 1007.9
20260507155944 75 41 3.0 0.0 0.00 0.00 0.00 87 1007.9
20260507155849 75 24 3.0 0.0 0.00 0.00 0.00 87 1007.9
20260507155719 75 40 3.0 0.0 0.00 0.00 0.00 87 1007.9
20260507155646 75 27 3.0 0.0 0.00 0.00 0.00 87 1007.9
20260507155538 75 37 3.0 0.0 0.00 0.00 0.00 87 1007.9
20260507155417 74 30 3.0 0.0 0.00 0.00 0.00 87 1007.9
20260507155332 74 85 3.0 0.0 0.00 0.00 0.00 87 1007.9
20260507155238 74 43 3.0 0.0 0.00 0.00 0.00 87 1007.9
20260507155134 74 37 3.0 0.0 0.00 0.00 0.00 87 1007.9
20260507155101 74 49 3.0 0.0 0.00 0.00 0.00 87 1007.9
20260507154932 74 49 3.0 0.0 0.00 0.00 0.00 87 1007.9
20260507154823 74 34 3.0 0.0 0.00 0.00 0.00 87 1007.9
20260507154722 74 21 3.0 0.0 0.00 0.00 0.00 88 1007.9
20260507154637 74 42 3.0 0.0 0.00 0.00 0.00 88 1007.9
20260507154539 74 24 4.0 0.0 0.00 0.00 0.00 88 1007.8
20260507154434 74 32 4.0 0.0 0.00 0.00 0.00 88 1007.8
20260507154334 74 84 4.0 0.0 0.00 0.00 0.00 88 1007.8
20260507154235 74 53 5.0 0.0 0.00 0.00 0.00 88 1007.8
20260507154153 74 49 4.0 0.0 0.00 0.00 0.00 88 1007.8
20260507154054 73 33 4.0 0.0 0.00 0.00 0.00 88 1007.8
20260507153925 73 36 4.0 0.0 0.00 0.00 0.00 88 1007.8
20260507153825 73 347 5.0 0.0 0.00 0.00 0.00 88 1007.8
20260507153740 73 88 5.0 0.0 0.00 0.00 0.00 88 1007.8
20260507153641 74 36 4.0 0.0 0.00 0.00 0.00 88 1007.8
20260507153537 74 43 4.0 0.0 0.00 0.00 0.00 88 1007.8
20260507153428 74 34 4.0 0.0 0.00 0.00 0.00 88 1007.8
20260507153352 74 53 4.0 0.0 0.00 0.00 0.00 88 1007.8
20260507153231 74 61 4.0 0.0 0.00 0.00 0.00 88 1007.8
20260507153125 74 14 3.0 0.0 0.00 0.00 0.00 88 1007.7
20260507153017 74 14 3.0 0.0 0.00 0.00 0.00 89 1007.7
20260507152923 74 44 3.0 0.0 0.00 0.00 0.00 89 1007.7
20260507152839 74 24 3.0 0.0 0.00 0.00 0.00 89 1007.7
20260507152745 73 30 3.0 0.0 0.00 0.00 0.00 89 1007.7
20260507152616 74 44 3.0 0.0 0.00 0.00 0.00 88 1007.7
20260507152544 73 40 3.0 0.0 0.00 0.00 0.00 88 1007.7
20260507152505 73 34 3.0 0.0 0.00 0.00 0.00 89 1007.7
20260507152358 73 355 3.0 0.0 0.00 0.00 0.00 89 1007.7
20260507152238 73 32 3.0 0.0 0.00 0.00 0.00 89 1007.7
20260507152129 73 45 3.0 0.0 0.00 0.00 0.00 89 1007.7
20260507152056 73 48 4.0 0.0 0.00 0.00 0.00 89 1007.7
20260507151949 73 49 5.0 0.0 0.00 0.00 0.00 89 1007.7
20260507151833 73 57 5.0 0.0 0.00 0.00 0.00 89 1007.7
20260507151724 73 13 5.0 0.0 0.00 0.00 0.00 89 1007.7
20260507151619 73 42 4.0 0.0 0.00 0.00 0.00 89 1007.6
20260507151526 73 35 4.0 0.0 0.00 0.00 0.00 89 1007.6
20260507151416 73 36 3.0 0.0 0.00 0.00 0.00 89 1007.6
20260507151324 73 36 3.0 0.0 0.00 0.00 0.00 89 1007.6
20260507151236 73 18 3.0 0.0 0.00 0.00 0.00 89 1007.6
20260507151141 73 37 3.0 0.0 0.00 0.00 0.00 89 1007.6
20260507151037 73 29 3.0 0.0 0.00 0.00 0.00 89 1007.6
20260507150959 73 32 3.0 0.0 0.00 0.00 0.00 89 1007.6
20260507150830 73 67 3.0 0.0 0.00 0.00 0.00 89 1007.6
20260507150722 73 35 3.0 0.0 0.00 0.00 0.00 89 1007.6
20260507150622 73 17 4.0 0.0 0.00 0.00 0.00 89 1007.6
20260507150536 73 38 4.0 0.0 0.00 0.00 0.00 89 1007.6
20260507150440 73 48 4.0 0.0 0.00 0.00 0.00 89 1007.6
20260507150336 73 25 4.0 0.0 0.00 0.00 0.00 90 1007.6
20260507150257 73 35 4.0 0.0 0.00 0.00 0.00 89 1007.6
20260507150127 73 53 4.0 0.0 0.00 0.00 0.00 90 1007.6
20260507150048 73 44 4.0 0.0 0.00 0.00 0.00 89 1007.6
20260507145921 73 74 4.0 0.0 0.00 0.00 0.00 90 1007.6
20260507145843 73 24 3.0 0.0 0.00 0.00 0.00 90 1007.6
20260507145734 73 49 3.0 0.0 0.00 0.00 0.00 90 1007.6
20260507145638 73 14 4.0 0.0 0.00 0.00 0.00 90 1007.6
20260507145530 73 47 4.0 0.0 0.00 0.00 0.00 90 1007.6
20260507145437 73 57 4.0 0.0 0.00 0.00 0.00 90 1007.6
20260507145328 73 20 4.0 0.0 0.00 0.00 0.00 90 1007.6
20260507145219 73 32 3.0 0.0 0.00 0.00 0.00 90 1007.6
20260507145144 73 63 3.0 0.0 0.00 0.00 0.00 90 1007.6
20260507145105 73 29 3.0 0.0 0.00 0.00 0.00 90 1007.6
20260507144937 73 40 2.0 0.0 0.00 0.00 0.00 90 1007.6
20260507144838 73 66 2.0 0.0 0.00 0.00 0.00 90 1007.6
20260507144734 73 76 2.0 0.0 0.00 0.00 0.00 90 1007.6
20260507144631 73 78 2.0 0.0 0.00 0.00 0.00 90 1007.6
20260507144534 73 34 2.0 0.0 0.00 0.00 0.00 90 1007.6
20260507144430 73 40 2.0 0.0 0.00 0.00 0.00 90 1007.6
20260507144321 73 61 2.0 0.0 0.00 0.00 0.00 91 1007.6
20260507144246 73 126 2.0 0.0 0.00 0.00 0.00 91 1007.6
20260507144208 73 49 2.0 0.0 0.00 0.00 0.00 91 1007.6
20260507144019 73 27 2.0 0.0 0.00 0.00 0.00 91 1007.6
20260507143942 73 32 2.0 0.0 0.00 0.00 0.00 91 1007.6
20260507143846 73 12 2.0 0.0 0.00 0.00 0.00 91 1007.6
20260507143807 73 34 3.0 0.0 0.00 0.00 0.00 91 1007.6
20260507143618 73 64 2.0 0.0 0.00 0.00 0.00 91 1007.6
20260507143537 73 24 2.0 0.0 0.00 0.00 0.00 91 1007.6
20260507143436 73 49 2.0 0.0 0.00 0.00 0.00 91 1007.6
20260507143334 73 53 2.0 0.0 0.00 0.00 0.00 91 1007.6
20260507143259 73 40 2.0 0.0 0.00 0.00 0.00 91 1007.6
20260507143128 73 74 3.0 0.0 0.00 0.00 0.00 91 1007.4
20260507143054 73 36 3.0 0.0 0.00 0.00 0.00 91 1007.4
20260507142929 73 36 3.0 0.0 0.00 0.00 0.00 91 1007.4
20260507142831 73 27 3.0 0.0 0.00 0.00 0.00 91 1007.4
20260507142755 73 41 3.0 0.0 0.00 0.00 0.00 91 1007.4
20260507142644 73 30 2.0 0.0 0.00 0.00 0.00 91 1007.4
20260507142517 73 30 2.0 0.0 0.00 0.00 0.00 91 1007.4
20260507142430 73 40 2.0 0.0 0.00 0.00 0.00 91 1007.4
20260507142352 73 15 2.0 0.0 0.00 0.00 0.00 91 1007.4
20260507142225 73 15 2.0 0.0 0.00 0.00 0.00 91 1007.4
20260507142148 73 9 3.0 0.0 0.00 0.00 0.00 91 1007.4
20260507142023 73 19 3.0 0.0 0.00 0.00 0.00 91 1007.4
20260507141924 73 22 4.0 0.0 0.00 0.00 0.00 91 1007.4
20260507141836 73 101 4.0 0.0 0.00 0.00 0.00 92 1007.4
20260507141734 73 30 4.0 0.0 0.00 0.00 0.00 92 1007.4
20260507141628 73 36 5.0 0.0 0.00 0.00 0.00 92 1007.3
20260507141530 73 47 5.0 0.0 0.00 0.00 0.00 92 1007.3
20260507141422 73 57 5.0 0.0 0.00 0.00 0.00 92 1007.3
20260507141323 73 34 4.0 0.0 0.00 0.00 0.00 92 1007.3
20260507141229 73 57 4.0 0.0 0.00 0.00 0.00 91 1007.3
20260507141145 73 49 3.0 0.0 0.00 0.00 0.00 91 1007.3
20260507141025 73 45 2.0 0.0 0.00 0.00 0.00 91 1007.3
20260507140921 73 348 2.0 0.0 0.00 0.00 0.00 91 1007.3
20260507140845 73 360 2.0 0.0 0.00 0.00 0.00 92 1007.3
20260507140720 73 38 1.0 0.0 0.00 0.00 0.00 92 1007.3
20260507140634 73 29 1.0 0.0 0.00 0.00 0.00 92 1007.3
20260507140555 73 50 0.0 0.0 0.00 0.00 0.00 91 1007.3
20260507140430 73 38 1.0 0.0 0.00 0.00 0.00 92 1007.3
20260507140331 73 337 1.0 0.0 0.00 0.00 0.00 92 1007.3
20260507140222 73 12 1.0 0.0 0.00 0.00 0.00 92 1007.3
20260507140144 73 26 1.0 0.0 0.00 0.00 0.00 92 1007.3
20260507140015 73 59 2.0 0.0 0.00 0.00 0.00 92 1007.0
20260507135929 73 29 2.0 0.0 0.00 0.00 0.00 92 1007.0
20260507135838 73 45 3.0 0.0 0.00 0.00 0.00 92 1007.0
20260507135737 73 24 3.0 0.0 0.00 0.00 0.00 92 1007.0
20260507135627 73 76 4.0 0.0 0.00 0.00 0.00 92 1007.0
20260507135534 73 53 4.0 0.0 0.00 0.00 0.00 92 1007.0
20260507135424 73 30 3.0 0.0 0.00 0.00 0.00 92 1007.0
20260507135323 74 56 4.0 0.0 0.00 0.00 0.00 92 1007.0
20260507135244 73 17 4.0 0.0 0.00 0.00 0.00 92 1007.0
20260507135122 73 82 4.0 0.0 0.00 0.00 0.00 92 1007.0
20260507135023 74 19 4.0 0.0 0.00 0.00 0.00 92 1007.0
20260507134939 74 49 4.0 0.0 0.00 0.00 0.00 92 1007.0
20260507134900 74 63 4.0 0.0 0.00 0.00 0.00 92 1007.0
20260507134742 74 30 4.0 0.0 0.00 0.00 0.00 92 1007.0
20260507134630 74 16 4.0 0.0 0.00 0.00 0.00 92 1006.6
20260507134523 74 32 3.0 0.0 0.00 0.00 0.00 92 1006.6
20260507134428 74 342 3.0 0.0 0.00 0.00 0.00 92 1006.6
20260507134325 74 22 3.0 0.0 0.00 0.00 0.00 92 1006.6
20260507134246 74 30 3.0 0.0 0.00 0.00 0.00 92 1006.6
20260507134124 74 45 3.0 0.0 0.00 0.00 0.00 92 1006.6
20260507134035 74 32 3.0 0.0 0.00 0.00 0.00 91 1006.6
20260507133934 74 44 3.0 0.0 0.00 0.00 0.00 92 1006.6
20260507133826 74 37 2.0 0.0 0.00 0.00 0.00 92 1006.6
20260507133726 74 76 2.0 0.0 0.00 0.00 0.00 92 1006.6
20260507133639 74 41 2.0 0.0 0.00 0.00 0.00 92 1006.6
20260507133540 74 34 2.0 0.0 0.00 0.00 0.00 92 1006.6
20260507133436 74 38 2.0 0.0 0.00 0.00 0.00 92 1006.6
20260507133331 74 40 2.0 0.0 0.00 0.00 0.00 92 1006.6
20260507133232 74 53 2.0 0.0 0.00 0.00 0.00 92 1006.6
20260507133123 74 59 2.0 0.0 0.00 0.00 0.00 92 1006.1
20260507133048 74 33 2.0 0.0 0.00 0.00 0.00 92 1006.1
20260507132920 74 28 1.0 0.0 0.00 0.00 0.00 92 1006.1
20260507132835 74 23 1.0 0.0 0.00 0.00 0.00 92 1006.1
20260507132802 74 43 1.0 0.0 0.00 0.00 0.00 92 1006.1
20260507132702 74 87 1.0 0.0 0.00 0.00 0.00 92 1006.1
20260507132532 74 18 1.0 0.0 0.00 0.00 0.00 92 1006.1
20260507132430 74 96 1.0 0.0 0.00 0.00 0.00 92 1006.1
20260507132331 74 27 1.0 0.0 0.00 0.00 0.00 92 1006.1
20260507132222 75 43 1.0 0.0 0.00 0.00 0.00 92 1006.1
20260507132142 75 15 1.0 0.0 0.00 0.00 0.00 91 1006.1
20260507132033 75 28 1.0 0.0 0.00 0.00 0.00 91 1006.1
20260507131933 75 46 0.0 0.0 0.00 0.00 0.00 91 1006.1
20260507131838 75 30 0.0 0.0 0.00 0.00 0.00 91 1006.1
20260507131730 75 30 0.0 0.0 0.00 0.00 0.00 91 1006.1
20260507131622 75 63 0.0 0.0 0.00 0.00 0.00 91 1005.6
20260507131545 75 25 0.0 0.0 0.00 0.00 0.00 91 1005.6
20260507131507 75 36 1.0 0.0 0.00 0.00 0.00 92 1005.6
20260507131337 75 18 1.0 0.0 0.00 0.00 0.00 91 1005.6
20260507131242 75 53 2.0 0.0 0.00 0.00 0.00 91 1005.6
20260507131134 75 29 2.0 0.0 0.00 0.00 0.00 91 1005.6
20260507131026 75 31 3.0 0.0 0.00 0.00 0.00 91 1005.6
20260507130926 75 46 4.0 0.0 0.00 0.00 0.00 91 1005.6
20260507130821 76 48 4.0 0.0 0.00 0.00 0.00 91 1005.6
20260507130720 76 41 5.0 0.0 0.00 0.00 0.00 91 1005.6
20260507130638 76 46 5.0 0.0 0.00 0.00 0.00 91 1005.6
20260507130559 76 43 6.0 0.0 0.00 0.00 0.00 91 1005.6
20260507130457 76 25 5.0 0.0 0.00 0.00 0.00 91 1005.6
20260507130334 76 36 6.0 0.0 0.00 0.00 0.00 91 1005.6
20260507130254 76 33 6.0 0.0 0.00 0.00 0.00 91 1005.6
20260507130128 76 32 6.0 0.0 0.00 0.00 0.00 90 1005.5
20260507130029 76 42 5.0 0.0 0.00 0.00 0.00 90 1005.5
20260507125921 77 13 5.0 0.0 0.00 0.00 0.00 90 1005.5
20260507125845 77 32 5.0 0.0 0.00 0.00 0.00 90 1005.5
20260507125759 77 71 5.0 0.0 0.00 0.00 0.00 89 1005.5
20260507125639 77 39 4.0 0.0 0.00 0.00 0.00 89 1005.5
20260507125533 78 69 3.0 0.0 0.00 0.00 0.00 89 1005.5
20260507125427 78 38 2.0 0.0 0.00 0.00 0.00 88 1005.5
20260507125330 79 38 2.0 0.0 0.00 0.00 0.00 88 1005.5
20260507125224 79 31 1.0 0.0 0.00 0.00 0.00 88 1005.5
20260507125149 79 13 1.0 0.0 0.00 0.00 0.00 88 1005.5
20260507125022 80 37 0.0 0.0 0.00 0.00 0.00 91 1005.5
20260507124934 80 40 0.0 0.0 0.00 0.00 0.00 92 1005.5
20260507124843 81 17 0.0 0.0 0.00 0.00 0.00 92 1005.5
20260507124731 81 22 0.0 0.0 0.00 0.00 0.00 92 1005.5
20260507124631 81 24 0.0 0.0 0.00 0.00 0.00 93 1005.1
20260507124525 81 78 0.0 0.0 0.00 0.00 0.00 92 1005.1
20260507124419 81 30 0.0 0.0 0.00 0.00 0.00 93 1005.1
20260507124323 80 26 0.0 0.0 0.00 0.00 0.00 93 1005.1
20260507124235 81 25 0.0 0.0 0.00 0.00 0.00 92 1005.1
20260507124140 80 42 0.0 0.0 0.00 0.00 0.00 92 1005.1
20260507124106 81 74 0.0 0.0 0.00 0.00 0.00 92 1005.1
20260507123936 80 74 0.0 0.0 0.00 0.00 0.00 92 1005.1
20260507123828 81 44 0.0 0.0 0.00 0.00 0.00 93 1005.1
20260507123756 81 58 0.0 0.0 0.00 0.00 0.00 93 1005.1
20260507123627 81 32 0.0 0.0 0.00 0.00 0.00 93 1005.1
20260507123529 81 92 0.0 0.0 0.00 0.00 0.00 93 1005.1
20260507123419 81 57 0.0 0.0 0.00 0.00 0.00 92 1005.1
20260507123318 80 57 0.0 0.0 0.00 0.00 0.00 93 1005.1
20260507123226 80 28 0.0 0.0 0.00 0.00 0.00 93 1005.1
20260507123137 80 28 0.0 0.0 0.00 0.00 0.00 92 1005.1
20260507123037 80 41 0.0 0.0 0.00 0.00 0.00 92 1004.9
20260507122931 80 24 0.0 0.0 0.00 0.00 0.00 92 1004.9
20260507122858 80 34 0.0 0.0 0.00 0.00 0.00 93 1004.9
20260507122732 80 19 0.0 0.0 0.00 0.00 0.00 93 1004.9
20260507122653 80 49 0.0 0.0 0.00 0.00 0.00 93 1004.9
20260507122525 80 49 0.0 0.0 0.00 0.00 0.00 93 1004.9
20260507122429 80 34 0.0 0.0 0.00 0.00 0.00 93 1004.9
20260507122322 80 36 0.0 0.0 0.00 0.00 0.00 93 1004.9
20260507122243 80 106 0.0 0.0 0.00 0.00 0.00 93 1004.9
20260507122137 80 106 0.0 0.0 0.00 0.00 0.00 93 1004.9
20260507122039 80 50 0.0 0.0 0.00 0.00 0.00 93 1004.9
20260507121932 80 57 0.0 0.0 0.00 0.00 0.00 93 1004.9
20260507121826 80 17 0.0 0.0 0.00 0.00 0.00 93 1004.9
20260507121730 80 21 0.0 0.0 0.00 0.00 0.00 93 1004.9
20260507121625 80 24 0.0 0.0 0.00 0.00 0.00 92 1004.9
20260507121547 80 23 0.0 0.0 0.00 0.00 0.00 92 1004.9
20260507121421 80 49 0.0 0.0 0.00 0.00 0.00 92 1004.9
20260507121334 80 46 0.0 0.0 0.00 0.00 0.00 92 1004.9
20260507121236 80 26 0.0 0.0 0.00 0.00 0.00 92 1004.9
20260507121134 80 38 0.0 0.0 0.00 0.00 0.00 92 1004.9
20260507121038 80 38 0.0 0.0 0.00 0.00 0.00 92 1004.9
20260507120925 80 38 0.0 0.0 0.00 0.00 0.00 92 1004.9
20260507120838 80 38 0.0 0.0 0.00 0.00 0.00 92 1004.9
20260507120738 80 47 0.0 0.0 0.00 0.00 0.00 92 1004.9
20260507120633 80 24 0.0 0.0 0.00 0.00 0.00 92 1004.9
20260507120524 80 36 0.0 0.0 0.00 0.00 0.00 92 1004.9
20260507120446 80 41 0.0 0.0 0.00 0.00 0.00 92 1004.9
20260507120346 80 41 0.0 0.0 0.00 0.00 0.00 92 1004.9
20260507120223 80 50 0.0 0.0 0.00 0.00 0.00 92 1004.9
20260507120145 80 18 0.0 0.0 0.00 0.00 0.00 92 1004.9
20260507120037 80 22 0.0 0.0 0.00 0.00 0.00 92 1005.0
20260507115931 81 14 0.0 0.0 0.00 0.00 0.00 92 1005.0
20260507115826 81 26 0.0 0.0 0.00 0.00 0.00 92 1005.0
20260507115748 81 27 0.0 0.0 0.00 0.00 0.00 92 1005.0
20260507115629 81 78 0.0 0.0 0.00 0.00 0.00 92 1005.0
20260507115527 81 28 0.0 0.0 0.00 0.00 0.00 92 1005.0
20260507115420 81 35 0.0 0.0 0.00 0.00 0.00 92 1005.0
20260507115345 81 35 0.0 0.0 0.00 0.00 0.00 92 1005.0
20260507115245 81 35 0.0 0.0 0.00 0.00 0.00 92 1005.0
20260507115138 81 109 0.0 0.0 0.00 0.00 0.00 92 1005.0
20260507115040 81 109 0.0 0.0 0.00 0.00 0.00 92 1005.0
20260507114953 81 37 0.0 0.0 0.00 0.00 0.00 92 1005.0
20260507114857 81 74 0.0 0.0 0.00 0.00 0.00 92 1005.0
20260507114727 81 74 0.0 0.0 0.00 0.00 0.00 92 1005.0
20260507114634 81 28 0.0 0.0 0.00 0.00 0.00 92 1005.0
20260507114528 81 28 0.0 0.0 0.00 0.00 0.00 92 1004.6
20260507114450 81 32 0.0 0.0 0.00 0.00 0.00 92 1004.6
20260507114321 81 33 0.0 0.0 0.00 0.00 0.00 92 1004.6
20260507114235 81 43 0.0 0.0 0.00 0.00 0.00 92 1004.6
20260507114136 81 65 0.0 0.0 0.00 0.00 0.00 92 1004.6
20260507114032 81 36 0.0 0.0 0.00 0.00 0.00 92 1004.6
20260507113932 81 71 0.0 0.0 0.00 0.00 0.00 92 1004.6
20260507113834 81 61 0.0 0.0 0.00 0.00 0.00 92 1004.6
20260507113727 81 30 0.0 0.0 0.00 0.00 0.00 92 1004.6
20260507113618 81 42 0.0 0.0 0.00 0.00 0.00 91 1004.6
20260507113525 81 350 0.0 0.0 0.00 0.00 0.00 91 1004.6
20260507113437 81 34 0.0 0.0 0.00 0.00 0.00 91 1004.6
20260507113341 81 59 0.0 0.0 0.00 0.00 0.00 91 1004.6
20260507113219 81 33 0.0 0.0 0.00 0.00 0.00 91 1004.6
20260507113135 81 37 0.0 0.0 0.00 0.00 0.00 91 1004.6
20260507113039 81 38 0.0 0.0 0.00 0.00 0.00 91 1004.7
20260507112934 81 38 0.0 0.0 0.00 0.00 0.00 91 1004.7
20260507112855 81 37 0.0 0.0 0.00 0.00 0.00 91 1004.7
20260507112725 81 46 0.0 0.0 0.00 0.00 0.00 91 1004.7
20260507112628 81 53 0.0 0.0 0.00 0.00 0.00 91 1004.7
20260507112527 81 26 0.0 0.0 0.00 0.00 0.00 91 1004.7
20260507112426 81 27 0.0 0.0 0.00 0.00 0.00 91 1004.7
20260507112348 81 37 0.0 0.0 0.00 0.00 0.00 91 1004.7
20260507112249 81 26 0.0 0.0 0.00 0.00 0.00 91 1004.7
20260507112122 81 28 0.0 0.0 0.00 0.00 0.00 91 1004.7
20260507112034 81 42 0.0 0.0 0.00 0.00 0.00 91 1004.7
20260507111939 81 34 0.0 0.0 0.00 0.00 0.00 91 1004.7
20260507111851 81 40 0.0 0.0 0.00 0.00 0.00 91 1004.7
20260507111748 81 36 0.0 0.0 0.00 0.00 0.00 91 1004.7
20260507111635 81 38 0.0 0.0 0.00 0.00 0.00 91 1004.7
20260507111528 81 38 0.0 0.0 0.00 0.00 0.00 91 1004.0
20260507111420 81 38 0.0 0.0 0.00 0.00 0.00 91 1004.0
20260507111325 81 22 0.0 0.0 0.00 0.00 0.00 91 1004.0
20260507111240 81 29 0.0 0.0 0.00 0.00 0.00 91 1004.0
20260507111141 81 40 0.0 0.0 0.00 0.00 0.00 91 1004.0
20260507111035 81 40 0.0 0.0 0.00 0.00 0.00 91 1004.0
20260507110933 81 37 0.0 0.0 0.00 0.00 0.00 91 1004.0
20260507110835 81 37 0.0 0.0 0.00 0.00 0.00 91 1004.0
20260507110735 81 28 0.0 0.0 0.00 0.00 0.00 91 1004.0
20260507110635 81 27 0.0 0.0 0.00 0.00 0.00 91 1004.0
20260507110529 81 26 0.0 0.0 0.00 0.00 0.00 91 1004.0
20260507110433 81 19 0.0 0.0 0.00 0.00 0.00 91 1004.0
20260507110324 81 32 0.0 0.0 0.00 0.00 0.00 91 1004.0
20260507110218 81 30 0.0 0.0 0.00 0.00 0.00 91 1004.0
20260507110143 81 56 0.0 0.0 0.00 0.00 0.00 91 1004.0
20260507110041 81 20 0.0 0.0 0.00 0.00 0.00 91 1004.0
20260507105943 81 40 0.0 0.0 0.00 0.00 0.00 91 1004.0
20260507105844 81 30 0.0 0.0 0.00 0.00 0.00 91 1004.0
20260507105740 81 28 0.0 0.0 0.00 0.00 0.00 91 1004.0
20260507105639 81 34 0.0 0.0 0.00 0.00 0.00 91 1004.0
20260507105518 81 34 0.0 0.0 0.00 0.00 0.00 91 1004.0
20260507105429 81 15 0.0 0.0 0.00 0.00 0.00 91 1004.0
20260507105355 81 15 0.0 0.0 0.00 0.00 0.00 91 1004.0
20260507105254 81 30 0.0 0.0 0.00 0.00 0.00 91 1004.0
20260507105129 81 40 0.0 0.0 0.00 0.00 0.00 91 1004.0
20260507105039 81 40 0.0 0.0 0.00 0.00 0.00 91 1004.0
20260507104929 81 44 0.0 0.0 0.00 0.00 0.00 91 1004.0
20260507104826 81 36 0.0 0.0 0.00 0.00 0.00 91 1004.0
20260507104729 81 40 0.0 0.0 0.00 0.00 0.00 91 1004.0
20260507104619 81 38 0.0 0.0 0.00 0.00 0.00 91 1004.4
20260507104544 81 18 0.0 0.0 0.00 0.00 0.00 91 1004.4
20260507104457 81 51 0.0 0.0 0.00 0.00 0.00 91 1004.4
20260507104340 81 51 0.0 0.0 0.00 0.00 0.00 91 1004.4
20260507104241 81 51 0.0 0.0 0.00 0.00 0.00 91 1004.4
20260507104143 81 29 0.0 0.0 0.00 0.00 0.00 91 1004.4
20260507104021 81 18 0.0 0.0 0.00 0.00 0.00 91 1004.4
20260507103932 81 18 0.0 0.0 0.00 0.00 0.00 91 1004.4
20260507103836 81 32 0.0 0.0 0.00 0.00 0.00 91 1004.4
20260507103729 81 32 0.0 0.0 0.00 0.00 0.00 91 1004.4
20260507103625 81 28 0.0 0.0 0.00 0.00 0.00 91 1004.4
20260507103529 81 44 0.0 0.0 0.00 0.00 0.00 91 1004.4
20260507103424 81 27 0.0 0.0 0.00 0.00 0.00 91 1004.4
20260507103348 81 94 0.0 0.0 0.00 0.00 0.00 91 1004.4
20260507103220 81 33 0.0 0.0 0.00 0.00 0.00 91 1004.4
20260507103135 81 89 0.0 0.0 0.00 0.00 0.00 91 1004.4
20260507103036 81 90 1.0 0.0 0.00 0.00 0.00 91 1004.0
20260507102936 81 19 1.0 0.0 0.00 0.00 0.00 91 1004.0
20260507102827 81 19 1.0 0.0 0.00 0.00 0.00 90 1004.0
20260507102728 81 44 1.0 0.0 0.00 0.00 0.00 90 1004.0
20260507102622 81 34 0.0 0.0 0.00 0.00 0.00 90 1004.0
20260507102549 81 345 0.0 0.0 0.00 0.00 0.00 90 1004.0
20260507102419 81 35 0.0 0.0 0.00 0.00 0.00 90 1004.0
20260507102347 81 44 0.0 0.0 0.00 0.00 0.00 90 1004.0
20260507102224 81 23 0.0 0.0 0.00 0.00 0.00 90 1004.0
20260507102136 81 34 0.0 0.0 0.00 0.00 0.00 90 1004.0
20260507102040 81 61 0.0 0.0 0.00 0.00 0.00 90 1004.0
20260507101918 81 34 0.0 0.0 0.00 0.00 0.00 90 1004.0
20260507101834 81 34 0.0 0.0 0.00 0.00 0.00 90 1004.0
20260507101735 81 41 0.0 0.0 0.00 0.00 0.00 90 1004.0
20260507101646 81 21 0.0 0.0 0.00 0.00 0.00 90 1005.0
20260507101530 81 49 0.0 0.0 0.00 0.00 0.00 90 1005.0
20260507101426 81 27 0.0 0.0 0.00 0.00 0.00 90 1005.0
20260507101318 81 59 0.0 0.0 0.00 0.00 0.00 90 1005.0
20260507101246 81 29 0.0 0.0 0.00 0.00 0.00 90 1005.0
20260507101207 81 43 0.0 0.0 0.00 0.00 0.00 90 1005.0
20260507101021 81 28 0.0 0.0 0.00 0.00 0.00 90 1005.0
20260507100934 81 28 0.0 0.0 0.00 0.00 0.00 90 1005.0
20260507100835 81 25 0.0 0.0 0.00 0.00 0.00 90 1005.0
20260507100734 81 25 0.0 0.0 0.00 0.00 0.00 90 1005.0
20260507100627 81 25 0.0 0.0 0.00 0.00 0.00 90 1005.0
20260507100529 81 25 0.0 0.0 0.00 0.00 0.00 90 1005.0
20260507100421 81 23 0.0 0.0 0.00 0.00 0.00 90 1005.0
20260507100348 81 108 0.0 0.0 0.00 0.00 0.00 90 1005.0
20260507100221 81 24 0.0 0.0 0.00 0.00 0.00 90 1005.0
20260507100131 81 24 0.0 0.0 0.00 0.00 0.00 90 1005.0
20260507100042 81 23 0.0 0.0 0.00 0.00 0.00 90 1004.1
20260507100007 81 24 0.0 0.0 0.00 0.00 0.00 90 1004.1
20260507095839 81 24 0.0 0.0 0.00 0.00 0.00 90 1004.1
20260507095730 81 24 0.0 0.0 0.00 0.00 0.00 90 1004.1
20260507095654 81 24 0.0 0.0 0.00 0.00 0.00 90 1004.1
20260507095529 81 24 0.0 0.0 0.00 0.00 0.00 90 1004.1
20260507095432 81 24 0.0 0.0 0.00 0.00 0.00 90 1004.1
20260507095326 81 24 0.0 0.0 0.00 0.00 0.00 90 1004.1
20260507095225 81 24 0.0 0.0 0.00 0.00 0.00 90 1004.1
20260507095127 81 24 0.0 0.0 0.00 0.00 0.00 90 1004.1
20260507095040 81 24 0.0 0.0 0.00 0.00 0.00 90 1004.1
20260507094942 81 59 0.0 0.0 0.00 0.00 0.00 90 1004.1
20260507094838 81 40 0.0 0.0 0.00 0.00 0.00 90 1004.1
20260507094729 81 26 0.0 0.0 0.00 0.00 0.00 90 1004.1
20260507094629 81 26 0.0 0.0 0.00 0.00 0.00 90 1003.9
20260507094529 81 40 0.0 0.0 0.00 0.00 0.00 90 1003.9
20260507094422 81 40 0.0 0.0 0.00 0.00 0.00 90 1003.9
20260507094322 81 49 0.0 0.0 0.00 0.00 0.00 90 1003.9
20260507094233 81 32 0.0 0.0 0.00 0.00 0.00 90 1003.9
20260507094141 81 350 0.0 0.0 0.00 0.00 0.00 90 1003.9
20260507094036 81 32 0.0 0.0 0.00 0.00 0.00 90 1003.9
20260507093926 81 49 0.0 0.0 0.00 0.00 0.00 90 1003.9
20260507093838 81 49 0.0 0.0 0.00 0.00 0.00 90 1003.9
20260507093727 81 53 0.0 0.0 0.00 0.00 0.00 90 1003.9
20260507093623 81 24 0.0 0.0 0.00 0.00 0.00 90 1003.9
20260507093525 81 41 0.0 0.0 0.00 0.00 0.00 90 1003.9
20260507093438 81 40 0.0 0.0 0.00 0.00 0.00 90 1003.9
20260507093317 81 21 0.0 0.0 0.00 0.00 0.00 90 1003.9
20260507093231 81 27 0.0 0.0 0.00 0.00 0.00 90 1003.9
20260507093158 81 32 0.0 0.0 0.00 0.00 0.00 90 1003.9
20260507093108 81 38 0.0 0.0 0.00 0.00 0.00 90 1004.0
20260507092939 81 17 0.0 0.0 0.00 0.00 0.00 90 1004.0
20260507092833 81 17 0.0 0.0 0.00 0.00 0.00 90 1004.0
20260507092757 81 23 0.0 0.0 0.00 0.00 0.00 90 1004.0
20260507092700 81 32 0.0 0.0 0.00 0.00 0.00 90 1004.0
20260507092531 81 19 0.0 0.0 0.00 0.00 0.00 90 1004.0
20260507092424 81 34 0.0 0.0 0.00 0.00 0.00 90 1004.0
20260507092328 81 53 0.0 0.0 0.00 0.00 0.00 90 1004.0
20260507092223 81 33 0.0 0.0 0.00 0.00 0.00 89 1004.0
20260507092145 82 44 0.0 0.0 0.00 0.00 0.00 89 1004.0
20260507092036 82 42 0.0 0.0 0.00 0.00 0.00 89 1004.0
20260507091932 82 28 0.0 0.0 0.00 0.00 0.00 89 1004.0
20260507091833 82 28 0.0 0.0 0.00 0.00 0.00 89 1004.0
20260507091746 82 28 0.0 0.0 0.00 0.00 0.00 89 1004.0
20260507091630 82 28 0.0 0.0 0.00 0.00 0.00 89 1004.5
20260507091529 82 27 0.0 0.0 0.00 0.00 0.00 89 1004.5
20260507091435 82 28 0.0 0.0 0.00 0.00 0.00 89 1004.5
20260507091328 82 27 0.0 0.0 0.00 0.00 0.00 89 1004.5
20260507091228 82 28 0.0 0.0 0.00 0.00 0.00 89 1004.5
20260507091138 82 27 0.0 0.0 0.00 0.00 0.00 89 1004.5
20260507091043 82 28 0.0 0.0 0.00 0.00 0.00 89 1004.5
20260507090955 82 30 0.0 0.0 0.00 0.00 0.00 89 1004.5
20260507090856 82 30 0.0 0.0 0.00 0.00 0.00 89 1004.5
20260507090732 82 23 0.0 0.0 0.00 0.00 0.00 89 1004.5
20260507090637 82 21 0.0 0.0 0.00 0.00 0.00 89 1004.5
20260507090529 82 22 0.0 0.0 0.00 0.00 0.00 89 1004.5
20260507090449 82 22 0.0 0.0 0.00 0.00 0.00 89 1004.5
20260507090321 82 22 0.0 0.0 0.00 0.00 0.00 89 1004.5
20260507090236 82 22 0.0 0.0 0.00 0.00 0.00 89 1004.5
20260507090157 82 22 0.0 0.0 0.00 0.00 0.00 89 1004.5
20260507090028 82 22 0.0 0.0 0.00 0.00 0.00 89 1004.0
20260507085934 82 22 0.0 0.0 0.00 0.00 0.00 89 1004.0
20260507085826 82 22 0.0 0.0 0.00 0.00 0.00 89 1004.0
20260507085717 82 22 0.0 0.0 0.00 0.00 0.00 89 1004.0
20260507085625 82 22 0.0 0.0 0.00 0.00 0.00 89 1004.0
20260507085536 82 22 0.0 0.0 0.00 0.00 0.00 89 1004.0
20260507085438 82 22 0.0 0.0 0.00 0.00 0.00 88 1004.0
20260507085350 82 22 0.0 0.0 0.00 0.00 0.00 88 1004.0
20260507085230 82 22 0.0 0.0 0.00 0.00 0.00 88 1004.0
20260507085130 82 22 0.0 0.0 0.00 0.00 0.00 88 1004.0
20260507085022 82 22 0.0 0.0 0.00 0.00 0.00 88 1004.0
20260507084929 82 22 0.0 0.0 0.00 0.00 0.00 88 1004.0
20260507084825 82 22 0.0 0.0 0.00 0.00 0.00 88 1004.0
20260507084724 82 22 0.0 0.0 0.00 0.00 0.00 88 1004.0
20260507084637 82 22 0.0 0.0 0.00 0.00 0.00 88 1004.0
20260507084540 82 22 0.0 0.0 0.00 0.00 0.00 88 1003.4
20260507084440 82 22 0.0 0.0 0.00 0.00 0.00 88 1003.4
20260507084343 82 22 0.0 0.0 0.00 0.00 0.00 88 1003.4
20260507084235 82 27 0.0 0.0 0.00 0.00 0.00 88 1003.4
20260507084135 82 27 0.0 0.0 0.00 0.00 0.00 88 1003.4
20260507084016 82 27 0.0 0.0 0.00 0.00 0.00 88 1003.4
20260507083917 82 27 0.0 0.0 0.00 0.00 0.00 88 1003.4
20260507083827 82 28 0.0 0.0 0.00 0.00 0.00 88 1003.4
20260507083744 82 28 0.0 0.0 0.00 0.00 0.00 88 1003.4
20260507083629 82 27 0.0 0.0 0.00 0.00 0.00 88 1003.4
20260507083520 82 30 0.0 0.0 0.00 0.00 0.00 88 1003.4
20260507083425 82 115 0.0 0.0 0.00 0.00 0.00 88 1003.4
20260507083337 82 132 0.0 0.0 0.00 0.00 0.00 88 1003.4
20260507083238 82 132 0.0 0.0 0.00 0.00 0.00 88 1003.4
20260507083129 82 107 0.0 0.0 0.00 0.00 0.00 88 1004.5
20260507083049 82 46 0.0 0.0 0.00 0.00 0.00 88 1004.5
20260507082953 82 46 0.0 0.0 0.00 0.00 0.00 88 1004.5
20260507082824 82 46 0.0 0.0 0.00 0.00 0.00 88 1004.5
20260507082746 82 94 0.0 0.0 0.00 0.00 0.00 88 1004.5
20260507082637 82 39 0.0 0.0 0.00 0.00 0.00 88 1004.5
20260507082539 82 10 0.0 0.0 0.00 0.00 0.00 87 1004.5
20260507082431 82 351 0.0 0.0 0.00 0.00 0.00 88 1004.5
20260507082330 82 120 0.0 0.0 0.00 0.00 0.00 88 1004.5
20260507082232 82 134 0.0 0.0 0.00 0.00 0.00 87 1004.5
20260507082131 82 134 0.0 0.0 0.00 0.00 0.00 87 1004.5
20260507082023 82 134 0.0 0.0 0.00 0.00 0.00 87 1004.5
20260507081928 82 134 0.0 0.0 0.00 0.00 0.00 87 1004.5
20260507081820 82 134 0.0 0.0 0.00 0.00 0.00 87 1004.5
20260507081744 82 134 0.0 0.0 0.00 0.00 0.00 87 1004.5
20260507081635 82 134 0.0 0.0 0.00 0.00 0.00 87 1004.5
20260507081558 82 134 0.0 0.0 0.00 0.00 0.00 87 1004.6
20260507081436 82 134 0.0 0.0 0.00 0.00 0.00 87 1004.6
20260507081328 82 207 0.0 0.0 0.00 0.00 0.00 87 1004.6
20260507081235 82 221 0.0 0.0 0.00 0.00 0.00 87 1004.6
20260507081130 82 221 0.0 0.0 0.00 0.00 0.00 87 1004.6
20260507081025 82 221 0.0 0.0 0.00 0.00 0.00 87 1004.6
20260507080927 82 221 0.0 0.0 0.00 0.00 0.00 87 1004.6
20260507080823 82 221 0.0 0.0 0.00 0.00 0.00 87 1004.6
20260507080719 82 221 0.0 0.0 0.00 0.00 0.00 87 1004.6
20260507080642 82 221 0.0 0.0 0.00 0.00 0.00 87 1004.6
20260507080545 82 221 0.0 0.0 0.00 0.00 0.00 87 1004.6
20260507080417 82 221 0.0 0.0 0.00 0.00 0.00 87 1004.6
20260507080331 82 221 0.0 0.0 0.00 0.00 0.00 87 1004.6
20260507080239 82 221 0.0 0.0 0.00 0.00 0.00 87 1004.6
20260507080130 82 221 0.0 0.0 0.00 0.00 0.00 87 1004.9
20260507080030 82 221 0.0 0.0 0.00 0.00 0.00 87 1004.9
20260507075930 82 221 0.0 0.0 0.00 0.00 0.00 87 1004.9
20260507075852 82 221 0.0 0.0 0.00 0.00 0.00 87 1004.9
20260507075724 82 221 0.0 0.0 0.00 0.00 0.00 87 1004.9
20260507075646 82 221 0.0 0.0 0.00 0.00 0.00 87 1004.9
20260507075537 82 221 0.0 0.0 0.00 0.00 0.00 87 1004.9
20260507075442 82 221 0.0 0.0 0.00 0.00 0.00 87 1004.9
20260507075334 82 221 0.0 0.0 0.00 0.00 0.00 87 1004.9
20260507075258 82 221 0.0 0.0 0.00 0.00 0.00 87 1004.9
20260507075137 82 221 0.0 0.0 0.00 0.00 0.00 87 1004.9
20260507075033 82 221 0.0 0.0 0.00 0.00 0.00 87 1004.9
20260507074933 82 221 0.0 0.0 0.00 0.00 0.00 87 1004.9
20260507074825 82 208 0.0 0.0 0.00 0.00 0.00 87 1004.9
20260507074746 82 207 0.0 0.0 0.00 0.00 0.00 87 1004.9
20260507074638 82 211 0.0 0.0 0.00 0.00 0.00 87 1004.9
20260507074532 82 211 0.0 0.0 0.00 0.00 0.00 87 1004.6
20260507074436 82 211 0.0 0.0 0.00 0.00 0.00 87 1004.6
20260507074329 82 211 0.0 0.0 0.00 0.00 0.00 87 1004.6
20260507074231 82 211 0.0 0.0 0.00 0.00 0.00 88 1004.6
20260507074121 82 209 0.0 0.0 0.00 0.00 0.00 88 1004.6
20260507074046 82 209 0.0 0.0 0.00 0.00 0.00 88 1004.6
20260507073941 82 99 0.0 0.0 0.00 0.00 0.00 88 1004.6
20260507073902 82 77 0.0 0.0 0.00 0.00 0.00 88 1004.6
20260507073721 82 78 0.0 0.0 0.00 0.00 0.00 88 1004.6
20260507073616 82 78 0.0 0.0 0.00 0.00 0.00 88 1004.6
20260507073543 82 78 0.0 0.0 0.00 0.00 0.00 88 1004.6
20260507073436 82 78 0.0 0.0 0.00 0.00 0.00 88 1004.6
20260507073329 82 78 0.0 0.0 0.00 0.00 0.00 88 1004.6
20260507073230 82 78 0.0 0.0 0.00 0.00 0.00 87 1004.6
20260507073126 82 78 0.0 0.0 0.00 0.00 0.00 88 1004.6
20260507073026 82 78 0.0 0.0 0.00 0.00 0.00 88 1004.6
20260507072926 82 77 0.0 0.0 0.00 0.00 0.00 87 1004.6
20260507072822 82 78 0.0 0.0 0.00 0.00 0.00 87 1004.6
20260507072746 82 78 0.0 0.0 0.00 0.00 0.00 87 1004.6
20260507072703 82 78 0.0 0.0 0.00 0.00 0.00 87 1004.6
20260507072543 82 78 0.0 0.0 0.00 0.00 0.00 87 1004.6
20260507072435 82 78 0.0 0.0 0.00 0.00 0.00 87 1004.6
20260507072328 82 77 0.0 0.0 0.00 0.00 0.00 87 1004.6
20260507072233 82 78 0.0 0.0 0.00 0.00 0.00 87 1004.6
20260507072125 82 78 0.0 0.0 0.00 0.00 0.00 87 1004.6
20260507072050 82 78 0.0 0.0 0.00 0.00 0.00 87 1004.6
20260507072005 82 78 0.0 0.0 0.00 0.00 0.00 87 1004.6
20260507071904 82 78 0.0 0.0 0.00 0.00 0.00 87 1004.6
20260507071807 82 78 0.0 0.0 0.00 0.00 0.00 87 1004.6
20260507071637 82 78 0.0 0.0 0.00 0.00 0.00 87 1004.6
20260507071558 82 78 0.0 0.0 0.00 0.00 0.00 87 1004.6
20260507071429 82 77 0.0 0.0 0.00 0.00 0.00 87 1004.6
20260507071353 82 78 0.0 0.0 0.00 0.00 0.00 87 1004.6
20260507071226 82 78 0.0 0.0 0.00 0.00 0.00 87 1004.6
20260507071130 82 78 0.0 0.0 0.00 0.00 0.00 87 1004.6
20260507071044 82 78 0.0 0.0 0.00 0.00 0.00 87 1004.6
20260507070928 82 78 0.0 0.0 0.00 0.00 0.00 87 1004.6
20260507070820 82 78 0.0 0.0 0.00 0.00 0.00 87 1004.6
20260507070743 82 78 0.0 0.0 0.00 0.00 0.00 87 1004.6
20260507070637 82 78 0.0 0.0 0.00 0.00 0.00 87 1004.6
20260507070522 82 216 0.0 0.0 0.00 0.00 0.00 87 1004.6
20260507070436 82 216 0.0 0.0 0.00 0.00 0.00 87 1004.6
20260507070338 82 216 0.0 0.0 0.00 0.00 0.00 87 1004.6
20260507070229 82 122 0.0 0.0 0.00 0.00 0.00 87 1004.6
20260507070156 82 122 0.0 0.0 0.00 0.00 0.00 87 1004.6
20260507070047 82 122 0.0 0.0 0.00 0.00 0.00 87 1004.5
20260507065928 82 122 0.0 0.0 0.00 0.00 0.00 87 1004.5
20260507065840 82 122 0.0 0.0 0.00 0.00 0.00 87 1004.5
20260507065741 82 122 0.0 0.0 0.00 0.00 0.00 87 1004.5
20260507065658 82 122 0.0 0.0 0.00 0.00 0.00 87 1004.5
20260507065539 82 122 0.0 0.0 0.00 0.00 0.00 87 1004.5
20260507065430 82 122 0.0 0.0 0.00 0.00 0.00 87 1004.5
20260507065327 82 122 0.0 0.0 0.00 0.00 0.00 87 1004.5
20260507065248 82 122 0.0 0.0 0.00 0.00 0.00 87 1004.5
20260507065148 82 122 0.0 0.0 0.00 0.00 0.00 87 1004.5
20260507065042 82 122 0.0 0.0 0.00 0.00 0.00 87 1004.5
20260507065006 82 163 0.0 0.0 0.00 0.00 0.00 87 1004.5
20260507064845 83 163 0.0 0.0 0.00 0.00 0.00 87 1004.5
20260507064806 83 163 0.0 0.0 0.00 0.00 0.00 87 1004.5
20260507064642 83 163 0.0 0.0 0.00 0.00 0.00 86 1004.5
20260507064547 83 172 0.0 0.0 0.00 0.00 0.00 86 1004.6
20260507064419 83 172 0.0 0.0 0.00 0.00 0.00 87 1004.6
20260507064332 83 172 0.0 0.0 0.00 0.00 0.00 87 1004.6
20260507064231 83 171 0.0 0.0 0.00 0.00 0.00 87 1004.6
20260507064148 83 171 0.0 0.0 0.00 0.00 0.00 87 1004.6
20260507064033 83 172 0.0 0.0 0.00 0.00 0.00 87 1004.6
20260507063924 83 172 0.0 0.0 0.00 0.00 0.00 87 1004.6
20260507063826 83 172 0.0 0.0 0.00 0.00 0.00 87 1004.6
20260507063737 83 171 0.0 0.0 0.00 0.00 0.00 87 1004.6
20260507063639 83 172 0.0 0.0 0.00 0.00 0.00 87 1004.6
20260507063531 83 171 0.0 0.0 0.00 0.00 0.00 87 1004.6
20260507063424 83 142 0.0 0.0 0.00 0.00 0.00 87 1004.6
20260507063329 83 142 0.0 0.0 0.00 0.00 0.00 87 1004.6
20260507063220 83 212 0.0 0.0 0.00 0.00 0.00 87 1004.6
20260507063147 83 100 0.0 0.0 0.00 0.00 0.00 87 1004.6
20260507063022 83 96 0.0 0.0 0.00 0.00 0.00 87 1004.5
20260507062938 83 47 0.0 0.0 0.00 0.00 0.00 87 1004.5
20260507062900 83 47 0.0 0.0 0.00 0.00 0.00 87 1004.5
20260507062759 83 34 0.0 0.0 0.00 0.00 0.00 87 1004.5
20260507062633 83 183 0.0 0.0 0.00 0.00 0.00 87 1004.5
20260507062530 83 182 0.0 0.0 0.00 0.00 0.00 87 1004.5
20260507062431 83 78 0.0 0.0 0.00 0.00 0.00 87 1004.5
20260507062348 83 78 0.0 0.0 0.00 0.00 0.00 87 1004.5
20260507062235 83 78 0.0 0.0 0.00 0.00 0.00 87 1004.5
20260507062127 83 78 0.0 0.0 0.00 0.00 0.00 87 1004.5
20260507062020 83 78 0.0 0.0 0.00 0.00 0.00 87 1004.5
20260507061927 83 78 0.0 0.0 0.00 0.00 0.00 87 1004.5
20260507061822 83 78 0.0 0.0 0.00 0.00 0.00 87 1004.5
20260507061747 83 78 0.0 0.0 0.00 0.00 0.00 87 1004.5
20260507061638 83 78 0.0 0.0 0.00 0.00 0.00 87 1004.5
20260507061530 83 78 0.0 0.0 0.00 0.00 0.00 87 1004.6
20260507061429 83 78 0.0 0.0 0.00 0.00 0.00 87 1004.6
20260507061345 83 78 0.0 0.0 0.00 0.00 0.00 87 1004.6
20260507061249 83 78 0.0 0.0 0.00 0.00 0.00 87 1004.6
20260507061211 83 78 0.0 0.0 0.00 0.00 0.00 87 1004.6
20260507061027 83 78 0.0 0.0 0.00 0.00 0.00 87 1004.6
20260507060940 83 78 0.0 0.0 0.00 0.00 0.00 87 1004.6
20260507060824 83 78 0.0 0.0 0.00 0.00 0.00 87 1004.6
20260507060734 83 45 0.0 0.0 0.00 0.00 0.00 87 1004.6
20260507060640 83 45 0.0 0.0 0.00 0.00 0.00 87 1004.6
20260507060541 83 45 0.0 0.0 0.00 0.00 0.00 87 1004.6
20260507060442 83 45 0.0 0.0 0.00 0.00 0.00 87 1004.6
20260507060320 83 90 0.0 0.0 0.00 0.00 0.00 87 1004.6
20260507060216 83 90 0.0 0.0 0.00 0.00 0.00 87 1004.6
20260507060144 83 63 0.0 0.0 0.00 0.00 0.00 87 1004.6
20260507060034 83 63 0.0 0.0 0.00 0.00 0.00 87 1004.8
20260507055934 83 63 0.0 0.0 0.00 0.00 0.00 87 1004.8
20260507055828 83 63 0.0 0.0 0.00 0.00 0.00 87 1004.8
20260507055720 83 63 0.0 0.0 0.00 0.00 0.00 87 1004.8
20260507055644 83 63 0.0 0.0 0.00 0.00 0.00 87 1004.8
20260507055605 83 63 0.0 0.0 0.00 0.00 0.00 87 1004.8
20260507055440 83 56 0.0 0.0 0.00 0.00 0.00 87 1004.8
20260507055342 83 56 0.0 0.0 0.00 0.00 0.00 87 1004.8
20260507055241 83 56 0.0 0.0 0.00 0.00 0.00 87 1004.8
20260507055203 83 56 0.0 0.0 0.00 0.00 0.00 87 1004.8
20260507055035 83 59 0.0 0.0 0.00 0.00 0.00 87 1004.8
20260507054928 83 71 0.0 0.0 0.00 0.00 0.00 86 1004.8
20260507054828 83 221 0.0 0.0 0.00 0.00 0.00 86 1004.8
20260507054725 83 106 0.0 0.0 0.00 0.00 0.00 86 1004.8
20260507054645 83 94 0.0 0.0 0.00 0.00 0.00 86 1004.8
20260507054538 83 96 0.0 0.0 0.00 0.00 0.00 86 1004.8
20260507054443 83 97 0.0 0.0 0.00 0.00 0.00 86 1004.8
20260507054335 83 97 0.0 0.0 0.00 0.00 0.00 86 1004.8
20260507054240 83 80 0.0 0.0 0.00 0.00 0.00 86 1004.8
20260507054133 83 80 0.0 0.0 0.00 0.00 0.00 86 1004.8
20260507054032 83 80 0.0 0.0 0.00 0.00 0.00 86 1004.8
20260507053942 83 120 0.0 0.0 0.00 0.00 0.00 86 1004.8
20260507053845 83 120 0.0 0.0 0.00 0.00 0.00 86 1004.8
20260507053722 83 96 0.0 0.0 0.00 0.00 0.00 87 1004.8
20260507053626 83 96 0.0 0.0 0.00 0.00 0.00 87 1004.8
20260507053545 83 82 0.0 0.0 0.00 0.00 0.00 87 1004.8
20260507053424 83 125 0.0 0.0 0.00 0.00 0.00 87 1004.8
20260507053340 83 134 0.0 0.0 0.00 0.00 0.00 87 1004.8
20260507053301 83 134 0.0 0.0 0.00 0.00 0.00 87 1004.8
20260507053143 83 134 0.0 0.0 0.00 0.00 0.00 87 1004.8
20260507053040 83 57 0.0 0.0 0.00 0.00 0.00 86 1004.6
20260507053005 83 57 0.0 0.0 0.00 0.00 0.00 86 1004.6
20260507052820 83 56 0.0 0.0 0.00 0.00 0.00 86 1004.6
20260507052734 83 312 0.0 0.0 0.00 0.00 0.00 86 1004.6
20260507052634 83 297 0.0 0.0 0.00 0.00 0.00 86 1004.6
20260507052528 83 290 0.0 0.0 0.00 0.00 0.00 86 1004.6
20260507052421 83 290 0.0 0.0 0.00 0.00 0.00 86 1004.6
20260507052325 83 111 0.0 0.0 0.00 0.00 0.00 86 1004.6
20260507052240 83 111 0.0 0.0 0.00 0.00 0.00 86 1004.6
20260507052120 83 111 0.0 0.0 0.00 0.00 0.00 86 1004.6
20260507052034 83 111 0.0 0.0 0.00 0.00 0.00 86 1004.6
20260507051956 83 111 0.0 0.0 0.00 0.00 0.00 86 1004.6
20260507051831 83 111 0.0 0.0 0.00 0.00 0.00 86 1004.6
20260507051754 83 111 0.0 0.0 0.00 0.00 0.00 86 1004.6
20260507051626 83 111 0.0 0.0 0.00 0.00 0.00 86 1004.5
20260507051527 83 111 0.0 0.0 0.00 0.00 0.00 86 1004.5
20260507051423 83 111 0.0 0.0 0.00 0.00 0.00 86 1004.5
20260507051347 83 111 0.0 0.0 0.00 0.00 0.00 86 1004.5
20260507051220 83 111 0.0 0.0 0.00 0.00 0.00 86 1004.5
20260507051131 83 111 0.0 0.0 0.00 0.00 0.00 86 1004.5
20260507051035 83 101 0.0 0.0 0.00 0.00 0.00 86 1004.5
20260507050931 83 100 0.0 0.0 0.00 0.00 0.00 86 1004.5
20260507050825 83 100 0.0 0.0 0.00 0.00 0.00 86 1004.5
20260507050735 83 100 0.0 0.0 0.00 0.00 0.00 86 1004.5
20260507050628 83 89 0.0 0.0 0.00 0.00 0.00 86 1004.5
20260507050528 83 89 0.0 0.0 0.00 0.00 0.00 86 1004.5
20260507050449 83 99 0.0 0.0 0.00 0.00 0.00 86 1004.5
20260507050340 83 208 0.0 0.0 0.00 0.00 0.00 86 1004.5
20260507050232 83 91 0.0 0.0 0.00 0.00 0.00 86 1004.5
20260507050132 83 91 0.0 0.0 0.00 0.00 0.00 86 1004.6
20260507050025 83 73 0.0 0.0 0.00 0.00 0.00 86 1004.6
20260507045950 83 73 0.0 0.0 0.00 0.00 0.00 86 1004.6
20260507045822 83 131 0.0 0.0 0.00 0.00 0.00 86 1004.6
20260507045738 83 131 0.0 0.0 0.00 0.00 0.00 86 1004.6
20260507045642 83 153 0.0 0.0 0.00 0.00 0.00 86 1004.6
20260507045534 83 153 0.0 0.0 0.00 0.00 0.00 86 1004.6
20260507045426 83 153 0.0 0.0 0.00 0.00 0.00 86 1004.6
20260507045326 83 89 0.0 0.0 0.00 0.00 0.00 86 1004.6
20260507045221 83 89 0.0 0.0 0.00 0.00 0.00 86 1004.6
20260507045126 83 88 0.0 0.0 0.00 0.00 0.00 86 1004.6
20260507045020 83 88 0.0 0.0 0.00 0.00 0.00 85 1004.6
20260507044947 83 75 0.0 0.0 0.00 0.00 0.00 85 1004.6
20260507044838 83 84 0.0 0.0 0.00 0.00 0.00 85 1004.6
20260507044728 83 84 0.0 0.0 0.00 0.00 0.00 85 1004.6
20260507044630 83 70 0.0 0.0 0.00 0.00 0.00 85 1004.5
20260507044526 83 69 0.0 0.0 0.00 0.00 0.00 85 1004.5
20260507044448 83 70 0.0 0.0 0.00 0.00 0.00 85 1004.5
20260507044342 83 105 0.0 0.0 0.00 0.00 0.00 85 1004.5
20260507044242 83 105 0.0 0.0 0.00 0.00 0.00 85 1004.5
20260507044154 83 186 0.0 0.0 0.00 0.00 0.00 85 1004.5
20260507044037 84 186 0.0 0.0 0.00 0.00 0.00 85 1004.5
20260507043932 84 70 0.0 0.0 0.00 0.00 0.00 85 1004.5
20260507043822 84 196 0.0 0.0 0.00 0.00 0.00 85 1004.5
20260507043744 84 81 0.0 0.0 0.00 0.00 0.00 85 1004.5
20260507043623 84 324 0.0 0.0 0.00 0.00 0.00 85 1004.5
20260507043526 84 324 0.0 0.0 0.00 0.00 0.00 85 1004.5
20260507043421 84 324 0.0 0.0 0.00 0.00 0.00 85 1004.5
20260507043343 84 324 0.0 0.0 0.00 0.00 0.00 85 1004.5
20260507043236 84 271 0.0 0.0 0.00 0.00 0.00 85 1004.5
20260507043130 84 278 0.0 0.0 0.00 0.00 0.00 85 1004.1
20260507043029 84 278 0.0 0.0 0.00 0.00 0.00 84 1004.1
20260507042929 84 292 0.0 0.0 0.00 0.00 0.00 84 1004.1
20260507042831 84 254 0.0 0.0 0.00 0.00 0.00 84 1004.1
20260507042723 84 66 0.0 0.0 0.00 0.00 0.00 84 1004.1
20260507042625 84 215 0.0 0.0 0.00 0.00 0.00 84 1004.1
20260507042540 84 215 0.0 0.0 0.00 0.00 0.00 84 1004.1
20260507042500 84 122 0.0 0.0 0.00 0.00 0.00 84 1004.1
20260507042330 84 232 0.0 0.0 0.00 0.00 0.00 84 1004.1
20260507042231 84 228 0.0 0.0 0.00 0.00 0.00 84 1004.1
20260507042128 84 88 0.0 0.0 0.00 0.00 0.00 84 1004.1
20260507042023 84 242 0.0 0.0 0.00 0.00 0.00 84 1004.1
20260507041948 84 242 0.0 0.0 0.00 0.00 0.00 84 1004.1
20260507041909 84 89 0.0 0.0 0.00 0.00 0.00 84 1004.1
20260507041738 84 90 0.0 0.0 0.00 0.00 0.00 84 1004.1
20260507041622 84 90 0.0 0.0 0.00 0.00 0.00 84 1004.0
20260507041535 84 250 0.0 0.0 0.00 0.00 0.00 84 1004.0
20260507041439 84 132 0.0 0.0 0.00 0.00 0.00 83 1004.0
20260507041334 85 220 0.0 0.0 0.00 0.00 0.00 83 1004.0
20260507041232 85 198 0.0 0.0 0.00 0.00 0.00 83 1004.0
20260507041132 85 114 0.0 0.0 0.00 0.00 0.00 83 1004.0
20260507041024 85 176 1.0 0.0 0.00 0.00 0.00 83 1004.0
20260507040944 85 103 1.0 0.0 0.00 0.00 0.00 83 1004.0
20260507040819 85 102 1.0 0.0 0.00 0.00 0.00 83 1004.0
20260507040738 85 78 1.0 0.0 0.00 0.00 0.00 83 1004.0
20260507040638 85 112 0.0 0.0 0.00 0.00 0.00 83 1004.0
20260507040606 85 103 1.0 0.0 0.00 0.00 0.00 83 1004.0
20260507040416 85 186 1.0 0.0 0.00 0.00 0.00 83 1004.0
20260507040330 85 232 0.0 0.0 0.00 0.00 0.00 83 1004.0
20260507040235 85 49 0.0 0.0 0.00 0.00 0.00 82 1004.0
20260507040124 85 222 0.0 0.0 0.00 0.00 0.00 82 1003.9
20260507040027 85 251 0.0 0.0 0.00 0.00 0.00 82 1003.9
20260507035921 85 80 0.0 0.0 0.00 0.00 0.00 82 1003.9
20260507035848 85 218 0.0 0.0 0.00 0.00 0.00 82 1003.9
20260507035725 85 149 0.0 0.0 0.00 0.00 0.00 82 1003.9
20260507035621 85 142 0.0 0.0 0.00 0.00 0.00 82 1003.9
20260507035543 85 90 0.0 0.0 0.00 0.00 0.00 82 1003.9
20260507035446 85 244 0.0 0.0 0.00 0.00 0.00 82 1003.9
20260507035408 86 99 0.0 0.0 0.00 0.00 0.00 82 1003.9
20260507035236 86 244 0.0 0.0 0.00 0.00 0.00 82 1003.9
20260507035132 86 53 0.0 0.0 0.00 0.00 0.00 81 1003.9
20260507035053 86 109 0.0 0.0 0.00 0.00 0.00 81 1003.9
20260507034927 86 98 0.0 0.0 0.00 0.00 0.00 81 1003.9
20260507034827 86 98 0.0 0.0 0.00 0.00 0.00 81 1003.9
20260507034740 86 141 0.0 0.0 0.00 0.00 0.00 81 1003.9
20260507034641 86 185 0.0 0.0 0.00 0.00 0.00 81 1003.9
20260507034553 86 111 0.0 0.0 0.00 0.00 0.00 81 1003.5
20260507034434 86 153 0.0 0.0 0.00 0.00 0.00 81 1003.5
20260507034327 86 186 0.0 0.0 0.00 0.00 0.00 81 1003.5
20260507034249 86 209 0.0 0.0 0.00 0.00 0.00 81 1003.5
20260507034124 86 157 0.0 0.0 0.00 0.00 0.00 81 1003.5
20260507034038 86 245 0.0 0.0 0.00 0.00 0.00 81 1003.5
20260507033939 86 245 0.0 0.0 0.00 0.00 0.00 80 1003.5
20260507033830 86 207 0.0 0.0 0.00 0.00 0.00 80 1003.5
20260507033722 86 67 0.0 0.0 0.00 0.00 0.00 80 1003.5
20260507033626 86 194 0.0 0.0 0.00 0.00 0.00 80 1003.5
20260507033538 86 218 0.0 0.0 0.00 0.00 0.00 80 1003.5
20260507033445 86 103 0.0 0.0 0.00 0.00 0.00 80 1003.5
20260507033320 86 238 0.0 0.0 0.00 0.00 0.00 80 1003.5
20260507033217 86 238 0.0 0.0 0.00 0.00 0.00 80 1003.5
20260507033144 86 240 0.0 0.0 0.00 0.00 0.00 80 1003.5
20260507033039 86 271 0.0 0.0 0.00 0.00 0.00 80 1003.5
20260507032942 87 220 0.0 0.0 0.00 0.00 0.00 80 1003.5
20260507032833 87 220 0.0 0.0 0.00 0.00 0.00 80 1003.5
20260507032737 87 182 0.0 0.0 0.00 0.00 0.00 80 1003.5
20260507032630 87 223 0.0 0.0 0.00 0.00 0.00 80 1003.5
20260507032525 87 112 0.0 0.0 0.00 0.00 0.00 80 1003.5
20260507032429 87 20 0.0 0.0 0.00 0.00 0.00 80 1003.5
20260507032345 87 88 0.0 0.0 0.00 0.00 0.00 79 1003.5
20260507032306 87 88 0.0 0.0 0.00 0.00 0.00 79 1003.5
20260507032205 87 88 0.0 0.0 0.00 0.00 0.00 79 1003.5
20260507032019 87 92 0.0 0.0 0.00 0.00 0.00 79 1003.5
20260507031934 87 76 0.0 0.0 0.00 0.00 0.00 79 1003.5
20260507031839 87 111 0.0 0.0 0.00 0.00 0.00 79 1003.5
20260507031732 87 111 0.0 0.0 0.00 0.00 0.00 79 1003.5
20260507031653 87 257 0.0 0.0 0.00 0.00 0.00 79 1003.4
20260507031525 87 169 0.0 0.0 0.00 0.00 0.00 79 1003.4
20260507031426 87 119 0.0 0.0 0.00 0.00 0.00 79 1003.4
20260507031344 87 242 0.0 0.0 0.00 0.00 0.00 79 1003.4
20260507031258 87 217 0.0 0.0 0.00 0.00 0.00 79 1003.4
20260507031139 87 96 0.0 0.0 0.00 0.00 0.00 79 1003.4
20260507031038 87 236 0.0 0.0 0.00 0.00 0.00 79 1003.4
20260507030959 87 213 0.0 0.0 0.00 0.00 0.00 79 1003.4
20260507030836 87 194 0.0 0.0 0.00 0.00 0.00 79 1003.4
20260507030757 87 223 0.0 0.0 0.00 0.00 0.00 79 1003.4
20260507030628 87 210 0.0 0.0 0.00 0.00 0.00 79 1003.4
20260507030522 87 184 0.0 0.0 0.00 0.00 0.00 78 1003.4
20260507030422 87 210 0.0 0.0 0.00 0.00 0.00 78 1003.4
20260507030335 87 199 0.0 0.0 0.00 0.00 0.00 78 1003.4
20260507030242 87 232 0.0 0.0 0.00 0.00 0.00 78 1003.4
20260507030138 87 140 0.0 0.0 0.00 0.00 0.00 78 1003.4
20260507030059 87 140 0.0 0.0 0.00 0.00 0.00 78 1002.9
20260507025930 87 140 0.0 0.0 0.00 0.00 0.00 78 1002.9
20260507025851 87 183 0.0 0.0 0.00 0.00 0.00 78 1002.9
20260507025721 87 77 0.0 0.0 0.00 0.00 0.00 78 1002.9
20260507025636 87 110 0.0 0.0 0.00 0.00 0.00 78 1002.9
20260507025538 87 95 0.0 0.0 0.00 0.00 0.00 78 1002.9
20260507025434 87 57 0.0 0.0 0.00 0.00 0.00 78 1002.9
20260507025328 87 97 0.0 0.0 0.00 0.00 0.00 78 1002.9
20260507025232 87 53 0.0 0.0 0.00 0.00 0.00 78 1002.9
20260507025122 87 203 0.0 0.0 0.00 0.00 0.00 77 1002.9
20260507025045 87 203 0.0 0.0 0.00 0.00 0.00 77 1002.9
20260507024935 87 257 0.0 0.0 0.00 0.00 0.00 77 1002.9
20260507024829 87 193 0.0 0.0 0.00 0.00 0.00 77 1002.9
20260507024732 87 285 0.0 0.0 0.00 0.00 0.00 77 1002.9
20260507024627 87 117 0.0 0.0 0.00 0.00 0.00 77 1002.4
20260507024546 87 55 0.0 0.0 0.00 0.00 0.00 77 1002.4
20260507024417 88 221 0.0 0.0 0.00 0.00 0.00 77 1002.4
20260507024335 88 222 0.0 0.0 0.00 0.00 0.00 77 1002.4
20260507024234 88 40 0.0 0.0 0.00 0.00 0.00 77 1002.4
20260507024130 88 100 0.0 0.0 0.00 0.00 0.00 77 1002.4
20260507024029 88 119 0.0 0.0 0.00 0.00 0.00 77 1002.4
20260507023948 88 80 0.0 0.0 0.00 0.00 0.00 77 1002.4
20260507023852 88 130 0.0 0.0 0.00 0.00 0.00 77 1002.4
20260507023726 88 175 0.0 0.0 0.00 0.00 0.00 77 1002.4
20260507023647 88 175 0.0 0.0 0.00 0.00 0.00 77 1002.4
20260507023518 88 175 0.0 0.0 0.00 0.00 0.00 77 1002.4
20260507023434 88 175 0.0 0.0 0.00 0.00 0.00 77 1002.4
20260507023335 88 92 0.0 0.0 0.00 0.00 0.00 77 1002.4
20260507023230 88 94 0.0 0.0 0.00 0.00 0.00 76 1002.4
20260507023120 88 51 0.0 0.0 0.00 0.00 0.00 76 1001.9
20260507023027 88 66 0.0 0.0 0.00 0.00 0.00 76 1001.9
20260507022938 88 259 0.0 0.0 0.00 0.00 0.00 76 1001.9
20260507022841 88 78 0.0 0.0 0.00 0.00 0.00 76 1001.9
20260507022733 88 92 1.0 0.0 0.00 0.00 0.00 76 1001.9
20260507022625 88 202 1.0 0.0 0.00 0.00 0.00 76 1001.9
20260507022529 88 180 1.0 0.0 0.00 0.00 0.00 76 1001.9
20260507022424 88 49 1.0 0.0 0.00 0.00 0.00 76 1001.9
20260507022323 88 92 1.0 0.0 0.00 0.00 0.00 76 1001.9
20260507022237 88 93 1.0 0.0 0.00 0.00 0.00 76 1001.9
20260507022141 88 149 0.0 0.0 0.00 0.00 0.00 76 1001.9
20260507022031 88 86 0.0 0.0 0.00 0.00 0.00 76 1001.9
20260507021927 88 276 0.0 0.0 0.00 0.00 0.00 77 1001.9
20260507021833 88 96 0.0 0.0 0.00 0.00 0.00 77 1001.9
20260507021755 88 109 0.0 0.0 0.00 0.00 0.00 77 1001.9
20260507021630 88 140 0.0 0.0 0.00 0.00 0.00 78 1001.5
20260507021551 88 75 0.0 0.0 0.00 0.00 0.00 78 1001.5
20260507021421 88 189 0.0 0.0 0.00 0.00 0.00 79 1001.5
20260507021334 88 104 0.0 0.0 0.00 0.00 0.00 79 1001.5
20260507021238 88 123 0.0 0.0 0.00 0.00 0.00 79 1001.5
20260507021134 88 122 0.0 0.0 0.00 0.00 0.00 79 1001.5
20260507021030 88 101 0.0 0.0 0.00 0.00 0.00 79 1001.5
20260507020931 89 102 0.0 0.0 0.00 0.00 0.00 79 1001.5
20260507020823 89 73 0.0 0.0 0.00 0.00 0.00 79 1001.5
20260507020747 89 73 0.0 0.0 0.00 0.00 0.00 79 1001.5
20260507020638 89 355 0.0 0.0 0.00 0.00 0.00 79 1001.5
20260507020541 89 67 0.0 0.0 0.00 0.00 0.00 79 1001.5
20260507020434 89 71 0.0 0.0 0.00 0.00 0.00 79 1001.5
20260507020340 89 41 0.0 0.0 0.00 0.00 0.00 79 1001.5
20260507020240 89 22 0.0 0.0 0.00 0.00 0.00 79 1001.5
20260507020201 89 52 0.0 0.0 0.00 0.00 0.00 79 1001.5
20260507020031 89 37 0.0 0.0 0.00 0.00 0.00 79 1001.3
20260507015931 89 26 0.0 0.0 0.00 0.00 0.00 79 1001.3
20260507015821 89 28 0.0 0.0 0.00 0.00 0.00 79 1001.3
20260507015744 89 26 0.0 0.0 0.00 0.00 0.00 79 1001.3
20260507015621 89 17 1.0 0.0 0.00 0.00 0.00 78 1001.3
20260507015532 89 58 1.0 0.0 0.00 0.00 0.00 78 1001.3
20260507015436 89 43 1.0 0.0 0.00 0.00 0.00 78 1001.3
20260507015328 89 39 1.0 0.0 0.00 0.00 0.00 78 1001.3
20260507015248 89 38 1.0 0.0 0.00 0.00 0.00 78 1001.3
20260507015139 89 99 2.0 0.0 0.00 0.00 0.00 78 1001.3
20260507015034 89 40 2.0 0.0 0.00 0.00 0.00 78 1001.3
20260507014933 89 30 2.0 0.0 0.00 0.00 0.00 78 1001.3
20260507014825 89 43 2.0 0.0 0.00 0.00 0.00 78 1001.3
20260507014731 89 69 1.0 0.0 0.00 0.00 0.00 78 1001.3
20260507014621 89 39 1.0 0.0 0.00 0.00 0.00 78 1000.9
20260507014542 89 52 0.0 0.0 0.00 0.00 0.00 78 1000.9
20260507014445 89 59 0.0 0.0 0.00 0.00 0.00 78 1000.9
20260507014400 89 20 0.0 0.0 0.00 0.00 0.00 78 1000.9
20260507014258 89 334 0.0 0.0 0.00 0.00 0.00 78 1000.9
20260507014129 89 49 0.0 0.0 0.00 0.00 0.00 78 1000.9
20260507014030 89 42 0.0 0.0 0.00 0.00 0.00 77 1000.9
20260507013923 90 41 0.0 0.0 0.00 0.00 0.00 77 1000.9
20260507013822 90 174 0.0 0.0 0.00 0.00 0.00 77 1000.9
20260507013723 90 22 0.0 0.0 0.00 0.00 0.00 77 1000.9
20260507013637 90 95 0.0 0.0 0.00 0.00 0.00 77 1000.9
20260507013537 90 15 0.0 0.0 0.00 0.00 0.00 77 1000.9
20260507013430 90 44 0.0 0.0 0.00 0.00 0.00 77 1000.9
20260507013331 90 39 0.0 0.0 0.00 0.00 0.00 77 1000.9
20260507013223 90 32 0.0 0.0 0.00 0.00 0.00 77 1000.9
20260507013145 90 44 0.0 0.0 0.00 0.00 0.00 77 1000.9
20260507013022 90 48 0.0 0.0 0.00 0.00 0.00 77 1000.7
20260507012934 90 29 0.0 0.0 0.00 0.00 0.00 77 1000.7
20260507012858 90 32 0.0 0.0 0.00 0.00 0.00 77 1000.7
20260507012739 90 32 0.0 0.0 0.00 0.00 0.00 77 1000.7
20260507012655 90 47 0.0 0.0 0.00 0.00 0.00 77 1000.7
20260507012533 90 55 1.0 0.0 0.00 0.00 0.00 76 1000.7
20260507012432 90 55 1.0 0.0 0.00 0.00 0.00 76 1000.7
20260507012338 90 55 1.0 0.0 0.00 0.00 0.00 76 1000.7
20260507012222 90 55 1.0 0.0 0.00 0.00 0.00 76 1000.7
20260507012134 90 36 1.0 0.0 0.00 0.00 0.00 76 1000.7
20260507012056 90 33 1.0 0.0 0.00 0.00 0.00 76 1000.7
20260507011927 90 40 1.0 0.0 0.00 0.00 0.00 76 1000.7
20260507011851 90 23 1.0 0.0 0.00 0.00 0.00 76 1000.7
20260507011751 90 34 1.0 0.0 0.00 0.00 0.00 76 1000.7
20260507011620 91 205 1.0 0.0 0.00 0.00 0.00 76 1000.4
20260507011538 91 336 1.0 0.0 0.00 0.00 0.00 76 1000.4
20260507011423 91 53 1.0 0.0 0.00 0.00 0.00 75 1000.4
20260507011337 91 12 1.0 0.0 0.00 0.00 0.00 75 1000.4
20260507011258 91 45 1.0 0.0 0.00 0.00 0.00 75 1000.4
20260507011129 91 39 1.0 0.0 0.00 0.00 0.00 75 1000.4
20260507011031 91 22 1.0 0.0 0.00 0.00 0.00 75 1000.4
20260507010740 91 51 2.0 0.0 0.00 0.00 0.00 75 1000.4
20260507010645 91 17 2.0 0.0 0.00 0.00 0.00 75 1000.4
20260507010518 91 58 2.0 0.0 0.00 0.00 0.00 75 1000.4
20260507010431 91 46 2.0 0.0 0.00 0.00 0.00 75 1000.4
20260507010331 91 32 2.0 0.0 0.00 0.00 0.00 75 1000.4
20260507010226 92 46 1.0 0.0 0.00 0.00 0.00 74 1000.4
20260507010148 92 32 1.0 0.0 0.00 0.00 0.00 74 1000.4
20260507010040 92 65 1.0 0.0 0.00 0.00 0.00 74 1000.2
20260507005925 92 25 1.0 0.0 0.00 0.00 0.00 74 1000.2
20260507005839 92 310 1.0 0.0 0.00 0.00 0.00 74 1000.2
20260507005744 92 59 1.0 0.0 0.00 0.00 0.00 74 1000.2
20260507005647 92 44 1.0 0.0 0.00 0.00 0.00 74 1000.2
20260507005522 92 46 1.0 0.0 0.00 0.00 0.00 73 1000.2
20260507005434 92 40 1.0 0.0 0.00 0.00 0.00 73 1000.2
20260507005336 92 19 1.0 0.0 0.00 0.00 0.00 73 1000.2
20260507005234 92 167 1.0 0.0 0.00 0.00 0.00 73 1000.2
20260507005126 92 32 2.0 0.0 0.00 0.00 0.00 73 1000.2
20260507005055 92 49 2.0 0.0 0.00 0.00 0.00 72 1000.2
20260507004936 93 44 2.0 0.0 0.00 0.00 0.00 72 1000.2
20260507004828 93 338 2.0 0.0 0.00 0.00 0.00 72 1000.2
20260507004747 93 63 2.0 0.0 0.00 0.00 0.00 72 1000.2
20260507004638 93 46 2.0 0.0 0.00 0.00 0.00 72 1000.2
20260507004542 93 175 2.0 0.0 0.00 0.00 0.00 72 999.8
20260507004438 93 197 2.0 0.0 0.00 0.00 0.00 71 999.8
20260507004359 93 351 2.0 0.0 0.00 0.00 0.00 71 999.8
20260507004215 94 74 2.0 0.0 0.00 0.00 0.00 71 999.8
20260507004131 94 80 2.0 0.0 0.00 0.00 0.00 70 999.8
20260507004033 94 100 2.0 0.0 0.00 0.00 0.00 70 999.8
20260507003923 94 315 2.0 0.0 0.00 0.00 0.00 70 999.8
20260507003845 94 232 2.0 0.0 0.00 0.00 0.00 70 999.8
20260507003738 94 341 2.0 0.0 0.00 0.00 0.00 69 999.8
20260507003637 95 36 1.0 0.0 0.00 0.00 0.00 68 999.8
20260507003532 95 14 1.0 0.0 0.00 0.00 0.00 67 999.8
20260507003457 95 325 1.0 0.0 0.00 0.00 0.00 64 999.8
20260507003329 95 44 0.0 0.0 0.00 0.00 0.00 64 999.8
20260507003250 95 46 0.0 0.0 0.00 0.00 0.00 64 999.8
20260507003122 95 84 0.0 0.0 0.00 0.00 0.00 64 999.7
20260507003033 95 28 0.0 0.0 0.00 0.00 0.00 64 999.7
20260507002956 95 32 0.0 0.0 0.00 0.00 0.00 64 999.7
20260507002830 95 18 0.0 0.0 0.00 0.00 0.00 64 999.7
20260507002731 95 38 0.0 0.0 0.00 0.00 0.00 64 999.7
20260507002627 95 31 0.0 0.0 0.00 0.00 0.00 64 999.7
20260507002523 95 29 0.0 0.0 0.00 0.00 0.00 64 999.7
20260507002423 95 67 0.0 0.0 0.00 0.00 0.00 63 999.7
20260507002342 95 74 0.0 0.0 0.00 0.00 0.00 63 999.7
20260507002242 95 101 0.0 0.0 0.00 0.00 0.00 63 999.7
20260507002143 95 22 0.0 0.0 0.00 0.00 0.00 63 999.7
20260507002033 95 32 0.0 0.0 0.00 0.00 0.00 63 999.7
20260507001955 95 22 0.0 0.0 0.00 0.00 0.00 63 999.7
20260507001850 95 17 0.0 0.0 0.00 0.00 0.00 63 999.7
20260507001730 95 44 0.0 0.0 0.00 0.00 0.00 63 999.7
20260507001622 95 50 0.0 0.0 0.00 0.00 0.00 63 999.5
20260507001521 95 36 0.0 0.0 0.00 0.00 0.00 63 999.5
20260507001424 95 40 0.0 0.0 0.00 0.00 0.00 63 999.5
20260507001343 95 42 0.0 0.0 0.00 0.00 0.00 63 999.5
20260507001246 95 37 0.0 0.0 0.00 0.00 0.00 63 999.5
20260507001207 95 76 0.0 0.0 0.00 0.00 0.00 63 999.5
20260507001023 95 69 0.0 0.0 0.00 0.00 0.00 63 999.5
20260507000939 95 46 0.0 0.0 0.00 0.00 0.00 63 999.5
20260507000840 95 26 0.0 0.0 0.00 0.00 0.00 63 999.5
20260507000733 95 28 0.0 0.0 0.00 0.00 0.00 63 999.5
20260507000625 95 24 0.0 0.0 0.00 0.00 0.00 63 999.5
20260507000527 95 24 0.0 0.0 0.00 0.00 0.00 63 999.5
20260507000438 95 28 0.0 0.0 0.00 0.00 0.00 63 999.5
20260507000345 95 72 0.0 0.0 0.00 0.00 0.00 63 999.5
20260507000236 95 44 0.0 0.0 0.00 0.00 0.00 63 999.5
20260507000138 95 36 0.0 0.0 0.00 0.00 0.00 63 999.5
20260507000052 95 31 0.0 0.0 0.00 0.00 0.00 63 999.3
20260506235937 95 25 0.0 0.0 0.00 0.00 0.00 63 999.3
20260506235857 95 35 0.0 0.0 0.00 0.00 0.00 63 999.3
20260506235735 95 18 0.0 0.0 0.00 0.00 0.00 63 999.3
20260506235630 95 29 0.0 0.0 0.00 0.00 0.00 63 999.3
20260506235531 95 46 0.0 0.0 0.00 0.00 0.00 62 999.3
20260506235430 95 43 0.0 0.0 0.00 0.00 0.00 63 999.3
20260506235350 95 30 0.0 0.0 0.00 0.00 0.00 63 999.3
20260506235223 96 30 0.0 0.0 0.00 0.00 0.00 63 999.3
20260506235144 95 37 0.0 0.0 0.00 0.00 0.00 63 999.3
20260506235016 95 22 0.0 0.0 0.00 0.00 0.00 63 999.3
20260506234943 95 33 0.0 0.0 0.00 0.00 0.00 63 999.3
20260506234839 95 33 0.0 0.0 0.00 0.00 0.00 63 999.3
20260506234719 95 39 0.0 0.0 0.00 0.00 0.00 63 999.3
20260506234644 95 36 0.0 0.0 0.00 0.00 0.00 63 999.3
20260506234609 95 33 0.0 0.0 0.00 0.00 0.00 63 999.3
20260506234420 95 161 1.0 0.0 0.00 0.00 0.00 63 999.3
20260506234331 95 51 1.0 0.0 0.00 0.00 0.00 63 999.3
20260506234253 95 42 1.0 0.0 0.00 0.00 0.00 63 999.3
20260506234125 95 58 1.0 0.0 0.00 0.00 0.00 62 999.3
20260506234026 95 14 1.0 0.0 0.00 0.00 0.00 62 999.3
20260506233923 96 45 1.0 0.0 0.00 0.00 0.00 62 999.3
20260506233845 96 94 1.0 0.0 0.00 0.00 0.00 63 999.3
20260506233756 95 25 1.0 0.0 0.00 0.00 0.00 63 999.3
20260506233634 95 72 1.0 0.0 0.00 0.00 0.00 63 999.3
20260506233533 95 32 1.0 0.0 0.00 0.00 0.00 63 999.3
20260506233435 95 19 1.0 0.0 0.00 0.00 0.00 62 999.3
20260506233329 95 28 1.0 0.0 0.00 0.00 0.00 62 999.3
20260506233251 96 24 1.0 0.0 0.00 0.00 0.00 62 999.3
20260506233126 95 67 1.0 0.0 0.00 0.00 0.00 62 999.2
20260506233050 96 46 1.0 0.0 0.00 0.00 0.00 63 999.2
20260506232923 95 59 1.0 0.0 0.00 0.00 0.00 63 999.2
20260506232826 95 48 1.0 0.0 0.00 0.00 0.00 63 999.2
20260506232738 95 41 1.0 0.0 0.00 0.00 0.00 63 999.2
20260506232642 95 46 1.0 0.0 0.00 0.00 0.00 63 999.2
20260506232541 95 24 1.0 0.0 0.00 0.00 0.00 63 999.2
20260506232439 96 49 0.0 0.0 0.00 0.00 0.00 63 999.2
20260506232335 96 39 0.0 0.0 0.00 0.00 0.00 63 999.2
20260506232230 96 22 0.0 0.0 0.00 0.00 0.00 63 999.2
20260506232132 96 53 0.0 0.0 0.00 0.00 0.00 63 999.2
20260506232046 96 35 0.0 0.0 0.00 0.00 0.00 63 999.2
20260506231926 96 38 0.0 0.0 0.00 0.00 0.00 63 999.2
20260506231849 96 30 0.0 0.0 0.00 0.00 0.00 63 999.2
20260506231740 96 20 1.0 0.0 0.00 0.00 0.00 63 999.2
20260506231629 96 40 1.0 0.0 0.00 0.00 0.00 63 999.1
20260506231553 96 43 1.0 0.0 0.00 0.00 0.00 63 999.1
20260506231429 96 24 1.0 0.0 0.00 0.00 0.00 63 999.1
20260506231350 96 34 1.0 0.0 0.00 0.00 0.00 63 999.1
20260506231254 96 40 1.0 0.0 0.00 0.00 0.00 63 999.1
20260506231130 96 15 1.0 0.0 0.00 0.00 0.00 63 999.1
20260506231022 96 49 1.0 0.0 0.00 0.00 0.00 63 999.1
20260506230921 96 23 1.0 0.0 0.00 0.00 0.00 62 999.1
20260506230821 96 10 1.0 0.0 0.00 0.00 0.00 62 999.1
20260506230745 96 16 1.0 0.0 0.00 0.00 0.00 63 999.1
20260506230620 96 28 0.0 0.0 0.00 0.00 0.00 62 999.1
20260506230538 96 27 0.0 0.0 0.00 0.00 0.00 62 999.1
20260506230500 96 82 0.0 0.0 0.00 0.00 0.00 63 999.1
20260506230401 96 42 0.0 0.0 0.00 0.00 0.00 64 999.1
20260506230252 96 26 0.0 0.0 0.00 0.00 0.00 63 999.1
20260506230151 96 97 0.0 0.0 0.00 0.00 0.00 63 998.9
20260506230053 96 18 0.0 0.0 0.00 0.00 0.00 64 998.9
20260506225922 96 44 0.0 0.0 0.00 0.00 0.00 64 998.9
20260506225850 96 39 0.0 0.0 0.00 0.00 0.00 64 998.9
20260506225802 96 39 0.0 0.0 0.00 0.00 0.00 62 998.9
20260506225645 96 41 0.0 0.0 0.00 0.00 0.00 63 998.9
20260506225537 96 60 0.0 0.0 0.00 0.00 0.00 62 998.9
20260506225443 96 55 0.0 0.0 0.00 0.00 0.00 63 998.9
20260506225336 96 30 0.0 0.0 0.00 0.00 0.00 63 998.9
20260506225242 96 64 0.0 0.0 0.00 0.00 0.00 63 998.9
20260506225137 96 30 0.0 0.0 0.00 0.00 0.00 63 998.9
20260506225031 96 25 0.0 0.0 0.00 0.00 0.00 63 998.9
20260506224956 96 37 0.0 0.0 0.00 0.00 0.00 63 998.9
20260506224840 96 35 1.0 0.0 0.00 0.00 0.00 63 998.9
20260506224730 96 350 1.0 0.0 0.00 0.00 0.00 63 998.9
20260506224621 96 34 1.0 0.0 0.00 0.00 0.00 62 999.0
20260506224525 96 75 1.0 0.0 0.00 0.00 0.00 62 999.0